GEFSSGP_prec_meanprecacc_006.txt.gz
Total_Precipitation_Accumulation
0.00 0.00 0.00 0.00 0.00 0.00 0.00 0.00 0.00 0.00 0.00 0.00 0.00 0.00 0.00 0.00 0.00 0.00 0.00 0.00 0.00 0.00 0.00 0.00 0.00 0.00 0.00 0.00 0.00 0.00 0.00 0.00 0.00 0.00 0.00 0.00 0.00 0.00 0.00 0.00 0.00 0.00 0.00 0.00 0.00 0.00 0.00 0.00 0.00
0.00 0.00 0.00 0.00 0.00 0.00 0.00 0.00 0.00 0.00 0.00 0.00 0.00 0.00 0.00 0.00 0.00 0.00 0.00 0.00 0.00 0.00 0.00 0.00 0.00 0.00 0.00 0.00 0.00 0.00 0.00 0.00 0.00 0.00 0.00 0.00 0.00 0.00 0.00 0.00 0.00 0.00 0.00 0.00 0.00 0.00 0.00 0.00 0.00
0.00 0.00 0.00 0.00 0.00 0.00 0.00 0.00 0.00 0.00 0.00 0.00 0.00 0.00 0.00 0.00 0.00 0.00 0.00 0.00 0.00 0.00 0.00 0.00 0.00 0.00 0.00 0.00 0.00 0.00 0.00 0.00 0.00 0.00 0.00 0.00 0.00 0.00 0.00 0.00 0.00 0.00 0.00 0.00 0.00 0.00 0.00 0.00 0.00
0.00 0.00 0.00 0.00 0.00 0.00 0.00 0.00 0.00 0.00 0.00 0.00 0.00 0.00 0.00 0.00 0.00 0.00 0.00 0.00 0.00 0.00 0.00 0.00 0.00 0.00 0.00 0.00 0.00 0.00 0.00 0.00 0.00 0.00 0.00 0.00 0.00 0.00 0.00 0.00 0.00 0.00 0.00 0.00 0.00 0.00 0.00 0.00 0.00
0.00 0.00 0.00 0.00 0.00 0.02 0.02 0.01 0.00 0.00 0.00 0.00 0.00 0.00 0.00 0.00 0.00 0.00 0.00 0.00 0.00 0.00 0.00 0.00 0.00 0.00 0.00 0.00 0.00 0.00 0.00 0.00 0.00 0.00 0.00 0.00 0.00 0.00 0.00 0.00 0.00 0.00 0.00 0.00 0.00 0.00 0.00 0.00 0.00
0.00 0.00 0.00 0.00 0.00 0.02 0.03 0.00 0.00 0.00 0.00 0.00 0.00 0.00 0.00 0.00 0.00 0.00 0.00 0.00 0.00 0.00 0.00 0.00 0.00 0.00 0.00 0.00 0.00 0.00 0.00 0.00 0.00 0.00 0.00 0.00 0.00 0.01 0.01 0.02 0.01 0.01 0.00 0.00 0.00 0.00 0.00 0.00 0.00
0.00 0.00 0.00 0.00 0.00 0.00 0.00 0.00 0.00 0.00 0.00 0.00 0.00 0.00 0.00 0.00 0.00 0.00 0.00 0.00 0.00 0.00 0.00 0.00 0.00 0.00 0.00 0.00 0.00 0.00 0.00 0.00 0.00 0.00 0.00 0.00 0.00 0.02 0.03 0.04 0.04 0.03 0.02 0.01 0.00 0.00 0.00 0.00 0.01
0.00 0.00 0.00 0.00 0.00 0.00 0.00 0.01 0.00 0.00 0.00 0.00 0.00 0.00 0.00 0.00 0.00 0.00 0.00 0.00 0.00 0.00 0.00 0.00 0.00 0.00 0.00 0.00 0.00 0.00 0.00 0.00 0.00 0.00 0.00 0.00 0.00 0.02 0.03 0.03 0.04 0.06 0.06 0.04 0.02 0.01 0.00 0.00 0.00
0.00 0.00 0.00 0.00 0.00 0.00 0.00 0.01 0.00 0.00 0.00 0.00 0.00 0.00 0.00 0.00 0.00 0.00 0.00 0.00 0.00 0.00 0.00 0.00 0.00 0.00 0.00 0.00 0.00 0.00 0.00 0.00 0.00 0.00 0.00 0.01 0.00 0.00 0.01 0.01 0.03 0.07 0.08 0.07 0.04 0.01 0.00 0.01 0.00
0.00 0.00 0.00 0.00 0.00 0.00 0.00 0.00 0.00 0.00 0.00 0.00 0.00 0.00 0.00 0.00 0.00 0.00 0.00 0.00 0.00 0.01 0.01 0.00 0.00 0.00 0.00 0.00 0.00 0.00 0.00 0.00 0.00 0.00 0.00 0.00 0.00 0.01 0.03 0.06 0.11 0.11 0.12 0.10 0.08 0.05 0.02 0.02 0.03
0.00 0.00 0.00 0.00 0.00 0.00 0.00 0.00 0.00 0.00 0.00 0.00 0.00 0.00 0.00 0.00 0.00 0.00 0.00 0.00 0.00 0.00 0.00 0.00 0.00 0.00 0.00 0.00 0.00 0.00 0.00 0.00 0.00 0.00 0.00 0.00 0.01 0.02 0.06 0.05 0.08 0.09 0.09 0.06 0.10 0.10 0.06 0.05 0.04
0.00 0.00 0.00 0.00 0.00 0.00 0.00 0.00 0.00 0.00 0.00 0.00 0.00 0.00 0.00 0.00 0.00 0.00 0.00 0.00 0.00 0.00 0.00 0.00 0.00 0.00 0.00 0.00 0.00 0.00 0.00 0.00 0.00 0.00 0.00 0.01 0.01 0.01 0.02 0.03 0.04 0.04 0.03 0.02 0.02 0.03 0.04 0.05 0.02
0.00 0.00 0.00 0.00 0.00 0.00 0.00 0.00 0.00 0.00 0.00 0.00 0.00 0.00 0.01 0.00 0.00 0.00 0.00 0.00 0.00 0.00 0.00 0.00 0.00 0.00 0.00 0.00 0.00 0.00 0.00 0.00 0.00 0.01 0.01 0.01 0.02 0.01 0.01 0.01 0.01 0.01 0.01 0.01 0.01 0.01 0.02 0.05 0.04
0.00 0.00 0.00 0.00 0.00 0.00 0.00 0.00 0.00 0.00 0.00 0.00 0.00 0.00 0.00 0.00 0.00 0.00 0.00 0.00 0.00 0.00 0.00 0.00 0.00 0.00 0.00 0.00 0.00 0.00 0.00 0.00 0.00 0.01 0.01 0.02 0.02 0.01 0.00 0.00 0.00 0.00 0.01 0.00 0.01 0.02 0.02 0.04 0.06
0.00 0.00 0.00 0.00 0.00 0.00 0.00 0.00 0.00 0.00 0.00 0.00 0.00 0.00 0.00 0.00 0.00 0.00 0.00 0.00 0.00 0.00 0.00 0.00 0.00 0.00 0.00 0.00 0.00 0.00 0.00 0.00 0.00 0.00 0.01 0.01 0.01 0.00 0.00 0.00 0.00 0.00 0.01 0.00 0.00 0.02 0.03 0.05 0.06
0.00 0.00 0.00 0.00 0.00 0.00 0.00 0.00 0.00 0.00 0.00 0.00 0.01 0.01 0.01 0.00 0.00 0.00 0.00 0.00 0.00 0.00 0.00 0.00 0.00 0.00 0.00 0.00 0.00 0.00 0.00 0.00 0.00 0.00 0.01 0.01 0.01 0.01 0.01 0.01 0.01 0.01 0.01 0.00 0.01 0.02 0.05 0.14 0.15
0.00 0.00 0.00 0.00 0.00 0.00 0.00 0.00 0.00 0.00 0.00 0.00 0.01 0.02 0.03 0.01 0.01 0.00 0.01 0.00 0.00 0.00 0.00 0.00 0.00 0.00 0.00 0.00 0.00 0.00 0.00 0.00 0.00 0.01 0.02 0.02 0.02 0.03 0.03 0.02 0.03 0.02 0.01 0.00 0.01 0.01 0.04 0.09 0.15
0.00 0.00 0.00 0.00 0.00 0.00 0.00 0.00 0.00 0.00 0.00 0.01 0.03 0.05 0.05 0.03 0.02 0.02 0.03 0.03 0.02 0.01 0.00 0.00 0.01 0.01 0.02 0.04 0.04 0.03 0.01 0.00 0.00 0.02 0.03 0.03 0.04 0.06 0.04 0.02 0.02 0.02 0.01 0.01 0.03 0.03 0.05 0.05 0.09
0.00 0.00 0.00 0.00 0.00 0.00 0.00 0.00 0.00 0.00 0.02 0.03 0.04 0.05 0.05 0.04 0.03 0.03 0.05 0.05 0.02 0.01 0.01 0.02 0.04 0.09 0.11 0.14 0.17 0.15 0.08 0.05 0.05 0.08 0.11 0.10 0.11 0.12 0.08 0.04 0.03 0.02 0.01 0.01 0.04 0.07 0.04 0.04 0.11
0.00 0.00 0.00 0.00 0.00 0.00 0.00 0.00 0.00 0.02 0.04 0.06 0.07 0.10 0.12 0.11 0.10 0.11 0.12 0.11 0.06 0.03 0.05 0.06 0.10 0.14 0.16 0.20 0.22 0.22 0.22 0.19 0.16 0.15 0.15 0.13 0.10 0.07 0.04 0.02 0.01 0.01 0.01 0.01 0.02 0.03 0.02 0.01 0.06
0.00 0.00 0.00 0.00 0.00 0.00 0.00 0.00 0.01 0.04 0.07 0.11 0.16 0.21 0.24 0.25 0.25 0.25 0.23 0.18 0.12 0.07 0.08 0.16 0.20 0.22 0.30 0.37 0.40 0.38 0.37 0.32 0.25 0.18 0.16 0.13 0.10 0.07 0.03 0.01 0.00 0.00 0.00 0.01 0.01 0.03 0.03 0.03 0.04
0.00 0.00 0.00 0.00 0.00 0.00 0.00 0.00 0.00 0.01 0.04 0.10 0.15 0.18 0.20 0.19 0.16 0.15 0.16 0.15 0.14 0.13 0.17 0.30 0.34 0.38 0.52 0.67 0.66 0.57 0.48 0.43 0.39 0.33 0.23 0.16 0.09 0.04 0.01 0.00 0.00 0.00 0.00 0.01 0.02 0.05 0.08 0.08 0.04
0.00 0.00 0.00 0.00 0.00 0.00 0.00 0.00 0.00 0.00 0.01 0.05 0.09 0.10 0.12 0.11 0.09 0.12 0.20 0.29 0.33 0.28 0.35 0.54 0.64 0.77 0.94 1.05 1.04 0.92 0.76 0.58 0.42 0.29 0.16 0.07 0.03 0.01 0.00 0.00 0.00 0.00 0.00 0.01 0.02 0.03 0.08 0.11 0.07
0.00 0.00 0.00 0.00 0.00 0.00 0.00 0.00 0.00 0.00 0.00 0.01 0.04 0.07 0.09 0.09 0.09 0.15 0.28 0.56 0.77 0.76 0.73 0.79 0.86 0.99 1.11 1.14 1.06 0.82 0.55 0.35 0.19 0.10 0.05 0.02 0.00 0.00 0.00 0.00 0.00 0.00 0.00 0.00 0.01 0.02 0.04 0.05 0.06
0.00 0.00 0.00 0.00 0.00 0.00 0.00 0.00 0.00 0.01 0.01 0.01 0.01 0.02 0.05 0.08 0.14 0.16 0.21 0.30 0.39 0.47 0.51 0.52 0.52 0.63 0.73 0.77 0.73 0.60 0.36 0.17 0.07 0.03 0.02 0.01 0.00 0.00 0.00 0.00 0.00 0.00 0.00 0.00 0.00 0.00 0.01 0.02 0.03
0.00 0.00 0.00 0.00 0.00 0.00 0.00 0.00 0.01 0.01 0.00 0.00 0.00 0.00 0.01 0.02 0.04 0.05 0.06 0.09 0.23 0.37 0.48 0.52 0.46 0.42 0.40 0.40 0.40 0.31 0.19 0.10 0.05 0.02 0.01 0.00 0.00 0.00 0.00 0.00 0.00 0.00 0.00 0.00 0.00 0.00 0.00 0.00 0.01
0.00 0.00 0.00 0.00 0.00 0.00 0.00 0.00 0.00 0.00 0.00 0.00 0.00 0.00 0.00 0.00 0.00 0.00 0.01 0.01 0.10 0.24 0.33 0.34 0.33 0.34 0.34 0.33 0.28 0.18 0.09 0.05 0.03 0.01 0.00 0.00 0.00 0.00 0.00 0.00 0.00 0.00 0.00 0.00 0.00 0.00 0.00 0.00 0.01
0.00 0.00 0.00 0.00 0.00 0.00 0.00 0.00 0.00 0.00 0.00 0.00 0.00 0.00 0.00 0.00 0.00 0.00 0.00 0.01 0.03 0.10 0.18 0.24 0.25 0.25 0.26 0.24 0.17 0.09 0.04 0.02 0.01 0.00 0.00 0.00 0.00 0.00 0.00 0.00 0.00 0.01 0.00 0.00 0.00 0.00 0.01 0.01 0.01
0.00 0.00 0.00 0.00 0.00 0.00 0.00 0.00 0.00 0.00 0.00 0.00 0.00 0.00 0.00 0.00 0.00 0.01 0.05 0.10 0.16 0.25 0.32 0.34 0.31 0.22 0.15 0.09 0.05 0.02 0.01 0.00 0.00 0.00 0.00 0.00 0.00 0.00 0.00 0.00 0.00 0.00 0.00 0.00 0.00 0.00 0.01 0.01 0.01
0.00 0.00 0.00 0.00 0.00 0.00 0.00 0.00 0.00 0.00 0.00 0.00 0.00 0.00 0.00 0.00 0.01 0.05 0.12 0.19 0.23 0.29 0.34 0.32 0.29 0.20 0.12 0.06 0.03 0.02 0.01 0.00 0.00 0.00 0.00 0.00 0.00 0.00 0.00 0.00 0.00 0.00 0.00 0.00 0.00 0.00 0.00 0.00 0.00

GEFSSGP_prec_meanprecacc_012.txt.gz
Total_Precipitation_Accumulation
0.00 0.00 0.00 0.00 0.00 0.00 0.00 0.00 0.00 0.00 0.00 0.00 0.00 0.00 0.00 0.00 0.00 0.00 0.00 0.00 0.00 0.00 0.00 0.00 0.00 0.00 0.00 0.00 0.00 0.00 0.00 0.00 0.00 0.00 0.00 0.00 0.00 0.00 0.00 0.00 0.00 0.00 0.00 0.00 0.00 0.00 0.00 0.00 0.00
0.00 0.00 0.00 0.00 0.00 0.00 0.00 0.00 0.00 0.00 0.00 0.00 0.00 0.00 0.00 0.00 0.00 0.00 0.00 0.00 0.00 0.00 0.00 0.00 0.00 0.00 0.00 0.00 0.00 0.00 0.00 0.00 0.00 0.00 0.00 0.00 0.00 0.00 0.00 0.00 0.00 0.00 0.00 0.00 0.00 0.00 0.00 0.00 0.00
0.00 0.00 0.00 0.00 0.00 0.00 0.00 0.00 0.00 0.00 0.00 0.00 0.00 0.00 0.00 0.00 0.00 0.00 0.00 0.00 0.00 0.00 0.00 0.00 0.00 0.00 0.00 0.00 0.00 0.00 0.00 0.00 0.00 0.00 0.00 0.00 0.00 0.00 0.00 0.00 0.00 0.00 0.00 0.00 0.00 0.00 0.00 0.00 0.01
0.00 0.00 0.00 0.00 0.00 0.00 0.00 0.00 0.00 0.00 0.00 0.00 0.00 0.00 0.00 0.00 0.00 0.00 0.00 0.00 0.00 0.00 0.00 0.00 0.00 0.00 0.00 0.00 0.00 0.00 0.00 0.00 0.00 0.00 0.00 0.00 0.00 0.00 0.00 0.00 0.00 0.00 0.00 0.00 0.00 0.00 0.00 0.00 0.00
0.00 0.00 0.00 0.00 0.00 0.02 0.02 0.01 0.00 0.00 0.00 0.00 0.00 0.00 0.00 0.00 0.00 0.00 0.00 0.00 0.00 0.00 0.00 0.00 0.00 0.00 0.00 0.00 0.00 0.00 0.00 0.00 0.00 0.00 0.00 0.00 0.00 0.00 0.00 0.00 0.00 0.00 0.00 0.00 0.00 0.00 0.00 0.00 0.00
0.00 0.00 0.00 0.00 0.00 0.02 0.03 0.00 0.00 0.00 0.00 0.00 0.00 0.00 0.00 0.00 0.00 0.00 0.00 0.00 0.00 0.00 0.00 0.00 0.00 0.00 0.00 0.00 0.00 0.00 0.00 0.00 0.00 0.00 0.00 0.00 0.00 0.01 0.01 0.02 0.01 0.01 0.01 0.01 0.00 0.00 0.00 0.01 0.01
0.00 0.00 0.00 0.00 0.00 0.00 0.01 0.00 0.00 0.00 0.00 0.00 0.00 0.00 0.00 0.00 0.00 0.00 0.00 0.00 0.00 0.00 0.00 0.00 0.00 0.00 0.00 0.00 0.00 0.00 0.00 0.00 0.00 0.00 0.00 0.00 0.00 0.02 0.03 0.05 0.04 0.03 0.02 0.02 0.01 0.00 0.00 0.01 0.01
0.00 0.00 0.00 0.00 0.00 0.00 0.00 0.01 0.01 0.00 0.00 0.00 0.00 0.00 0.00 0.00 0.00 0.00 0.00 0.00 0.00 0.00 0.00 0.00 0.00 0.00 0.00 0.00 0.00 0.00 0.00 0.00 0.00 0.00 0.00 0.00 0.00 0.02 0.03 0.03 0.04 0.07 0.07 0.06 0.04 0.01 0.00 0.01 0.01
0.00 0.00 0.00 0.00 0.00 0.00 0.00 0.01 0.00 0.00 0.00 0.00 0.00 0.00 0.00 0.00 0.00 0.00 0.00 0.00 0.00 0.01 0.01 0.00 0.00 0.00 0.00 0.00 0.00 0.00 0.00 0.00 0.00 0.00 0.00 0.01 0.00 0.00 0.01 0.02 0.03 0.07 0.09 0.08 0.05 0.02 0.01 0.02 0.01
0.00 0.00 0.00 0.00 0.00 0.00 0.00 0.00 0.00 0.00 0.00 0.00 0.00 0.00 0.00 0.00 0.00 0.00 0.00 0.00 0.00 0.01 0.01 0.00 0.00 0.00 0.00 0.00 0.00 0.00 0.00 0.00 0.00 0.00 0.00 0.00 0.01 0.02 0.03 0.06 0.11 0.11 0.13 0.11 0.09 0.06 0.04 0.03 0.04
0.00 0.00 0.00 0.00 0.00 0.00 0.00 0.00 0.00 0.00 0.00 0.00 0.00 0.00 0.00 0.00 0.00 0.00 0.00 0.00 0.00 0.00 0.00 0.00 0.00 0.00 0.00 0.00 0.00 0.00 0.00 0.01 0.01 0.00 0.00 0.00 0.01 0.03 0.06 0.05 0.08 0.09 0.10 0.08 0.12 0.13 0.08 0.07 0.11
0.00 0.00 0.00 0.00 0.00 0.00 0.00 0.00 0.00 0.00 0.00 0.00 0.00 0.00 0.00 0.00 0.00 0.00 0.00 0.00 0.00 0.00 0.00 0.00 0.00 0.00 0.00 0.00 0.00 0.00 0.00 0.01 0.01 0.01 0.01 0.01 0.01 0.01 0.02 0.03 0.04 0.05 0.05 0.07 0.10 0.10 0.08 0.09 0.07
0.00 0.00 0.00 0.00 0.00 0.00 0.00 0.00 0.00 0.00 0.00 0.00 0.00 0.00 0.01 0.00 0.00 0.00 0.00 0.00 0.00 0.00 0.00 0.00 0.00 0.00 0.00 0.01 0.00 0.00 0.00 0.00 0.00 0.01 0.01 0.01 0.02 0.01 0.01 0.01 0.01 0.01 0.02 0.03 0.06 0.06 0.06 0.09 0.07
0.00 0.00 0.00 0.00 0.00 0.00 0.00 0.00 0.00 0.00 0.00 0.00 0.00 0.00 0.00 0.00 0.00 0.00 0.00 0.00 0.00 0.00 0.00 0.00 0.00 0.00 0.01 0.01 0.00 0.00 0.00 0.00 0.00 0.01 0.01 0.02 0.02 0.01 0.01 0.00 0.01 0.01 0.01 0.01 0.02 0.05 0.07 0.09 0.12
0.00 0.00 0.00 0.00 0.00 0.00 0.00 0.00 0.00 0.00 0.00 0.00 0.00 0.00 0.00 0.00 0.00 0.00 0.00 0.00 0.00 0.00 0.00 0.00 0.00 0.00 0.00 0.00 0.00 0.00 0.00 0.00 0.00 0.00 0.01 0.01 0.01 0.01 0.02 0.01 0.01 0.02 0.02 0.02 0.02 0.05 0.06 0.07 0.09
0.00 0.00 0.00 0.00 0.00 0.00 0.00 0.00 0.00 0.00 0.00 0.00 0.01 0.01 0.01 0.00 0.00 0.00 0.00 0.00 0.00 0.00 0.00 0.00 0.00 0.00 0.00 0.01 0.00 0.00 0.00 0.00 0.00 0.00 0.01 0.01 0.02 0.03 0.05 0.03 0.02 0.05 0.04 0.03 0.04 0.05 0.07 0.15 0.18
0.00 0.00 0.00 0.00 0.00 0.00 0.00 0.00 0.00 0.00 0.00 0.00 0.01 0.02 0.03 0.01 0.01 0.00 0.01 0.00 0.00 0.00 0.01 0.01 0.01 0.00 0.00 0.01 0.01 0.00 0.00 0.00 0.00 0.01 0.02 0.03 0.04 0.06 0.09 0.08 0.09 0.09 0.06 0.05 0.05 0.05 0.09 0.13 0.19
0.00 0.00 0.00 0.00 0.00 0.00 0.00 0.00 0.00 0.00 0.00 0.01 0.03 0.05 0.05 0.03 0.02 0.02 0.03 0.03 0.02 0.01 0.00 0.00 0.01 0.02 0.03 0.05 0.06 0.04 0.02 0.01 0.01 0.02 0.05 0.07 0.11 0.14 0.17 0.13 0.13 0.13 0.10 0.10 0.12 0.11 0.13 0.11 0.17
0.00 0.00 0.00 0.00 0.00 0.00 0.00 0.00 0.00 0.00 0.02 0.03 0.04 0.05 0.05 0.04 0.04 0.04 0.05 0.05 0.02 0.01 0.01 0.03 0.05 0.10 0.14 0.19 0.23 0.22 0.14 0.10 0.10 0.13 0.19 0.26 0.32 0.34 0.34 0.24 0.23 0.18 0.13 0.10 0.13 0.14 0.09 0.08 0.18
0.00 0.00 0.00 0.00 0.00 0.00 0.00 0.00 0.00 0.02 0.04 0.06 0.07 0.10 0.12 0.12 0.11 0.12 0.13 0.11 0.07 0.05 0.06 0.08 0.11 0.16 0.20 0.26 0.35 0.42 0.46 0.45 0.43 0.45 0.47 0.51 0.51 0.45 0.38 0.33 0.26 0.19 0.14 0.09 0.08 0.07 0.05 0.03 0.10
0.00 0.00 0.00 0.00 0.00 0.00 0.00 0.00 0.01 0.04 0.07 0.11 0.16 0.21 0.24 0.26 0.26 0.26 0.24 0.20 0.14 0.10 0.11 0.18 0.22 0.25 0.35 0.47 0.60 0.68 0.76 0.82 0.84 0.84 0.90 0.87 0.80 0.71 0.59 0.46 0.32 0.19 0.12 0.07 0.05 0.05 0.04 0.04 0.07
0.00 0.00 0.00 0.00 0.00 0.00 0.00 0.00 0.00 0.01 0.04 0.10 0.15 0.18 0.20 0.19 0.16 0.15 0.17 0.16 0.17 0.15 0.19 0.31 0.36 0.41 0.58 0.80 0.88 0.92 1.05 1.21 1.34 1.45 1.46 1.38 1.24 1.08 0.87 0.64 0.41 0.22 0.11 0.06 0.04 0.05 0.09 0.10 0.07
0.00 0.00 0.00 0.00 0.00 0.00 0.00 0.00 0.00 0.00 0.01 0.05 0.09 0.10 0.12 0.11 0.09 0.12 0.20 0.30 0.34 0.29 0.36 0.55 0.66 0.79 0.99 1.14 1.24 1.33 1.43 1.51 1.49 1.47 1.41 1.35 1.28 1.13 0.93 0.67 0.44 0.24 0.10 0.04 0.03 0.04 0.09 0.12 0.09
0.00 0.00 0.00 0.00 0.00 0.00 0.00 0.00 0.00 0.00 0.00 0.01 0.04 0.07 0.09 0.09 0.09 0.15 0.28 0.56 0.77 0.77 0.74 0.80 0.88 1.02 1.15 1.21 1.28 1.31 1.27 1.24 1.16 1.07 0.97 0.90 0.86 0.77 0.63 0.45 0.29 0.17 0.08 0.04 0.02 0.03 0.05 0.06 0.08
0.00 0.00 0.00 0.00 0.00 0.00 0.00 0.00 0.00 0.01 0.01 0.01 0.01 0.02 0.05 0.08 0.14 0.16 0.21 0.30 0.39 0.47 0.51 0.54 0.53 0.65 0.76 0.82 0.82 0.80 0.74 0.68 0.61 0.54 0.49 0.44 0.39 0.34 0.30 0.24 0.19 0.13 0.08 0.04 0.02 0.02 0.02 0.02 0.04
0.00 0.00 0.00 0.00 0.00 0.00 0.00 0.00 0.01 0.01 0.00 0.00 0.00 0.00 0.01 0.02 0.04 0.05 0.06 0.09 0.23 0.37 0.49 0.53 0.48 0.45 0.44 0.46 0.47 0.40 0.33 0.29 0.25 0.22 0.19 0.16 0.15 0.13 0.12 0.13 0.13 0.11 0.07 0.03 0.02 0.02 0.01 0.01 0.02
0.00 0.00 0.00 0.00 0.00 0.00 0.00 0.00 0.00 0.00 0.00 0.00 0.00 0.00 0.00 0.00 0.00 0.00 0.01 0.01 0.10 0.24 0.33 0.35 0.36 0.39 0.42 0.44 0.40 0.30 0.20 0.15 0.11 0.09 0.09 0.09 0.09 0.07 0.07 0.09 0.10 0.09 0.07 0.04 0.03 0.03 0.02 0.02 0.03
0.00 0.00 0.00 0.00 0.00 0.00 0.00 0.00 0.00 0.00 0.00 0.00 0.00 0.00 0.00 0.00 0.00 0.00 0.00 0.01 0.03 0.10 0.19 0.27 0.32 0.36 0.41 0.44 0.40 0.32 0.22 0.13 0.09 0.07 0.06 0.05 0.04 0.03 0.04 0.05 0.05 0.05 0.04 0.02 0.01 0.02 0.02 0.03 0.04
0.00 0.00 0.00 0.00 0.00 0.00 0.00 0.00 0.00 0.00 0.00 0.00 0.00 0.00 0.00 0.00 0.00 0.01 0.05 0.10 0.16 0.26 0.35 0.40 0.41 0.38 0.37 0.39 0.38 0.33 0.25 0.19 0.15 0.11 0.07 0.04 0.02 0.02 0.03 0.03 0.02 0.02 0.01 0.01 0.01 0.01 0.02 0.02 0.02
0.00 0.00 0.00 0.00 0.00 0.00 0.00 0.00 0.00 0.00 0.00 0.00 0.00 0.00 0.00 0.00 0.01 0.05 0.12 0.19 0.24 0.31 0.40 0.44 0.49 0.51 0.52 0.55 0.60 0.63 0.56 0.43 0.30 0.18 0.09 0.04 0.03 0.03 0.02 0.01 0.01 0.00 0.01 0.01 0.01 0.00 0.01 0.01 0.01

GEFSSGP_prec_meanprecacc_018.txt.gz
Total_Precipitation_Accumulation
0.00 0.00 0.00 0.00 0.00 0.01 0.01 0.00 0.00 0.00 0.00 0.00 0.00 0.00 0.00 0.00 0.01 0.02 0.00 0.00 0.00 0.00 0.00 0.00 0.00 0.00 0.00 0.00 0.00 0.00 0.00 0.00 0.00 0.00 0.00 0.00 0.00 0.00 0.00 0.00 0.00 0.00 0.00 0.00 0.00 0.00 0.00 0.00 0.00
0.00 0.00 0.00 0.00 0.00 0.02 0.01 0.00 0.00 0.00 0.00 0.00 0.00 0.00 0.00 0.00 0.00 0.00 0.00 0.00 0.00 0.00 0.00 0.00 0.00 0.00 0.00 0.00 0.00 0.00 0.00 0.00 0.00 0.00 0.00 0.00 0.00 0.00 0.00 0.00 0.00 0.00 0.00 0.00 0.00 0.00 0.00 0.00 0.00
0.00 0.00 0.00 0.00 0.00 0.01 0.01 0.00 0.00 0.00 0.00 0.00 0.00 0.00 0.00 0.00 0.00 0.00 0.00 0.00 0.00 0.00 0.00 0.00 0.00 0.00 0.00 0.00 0.00 0.00 0.00 0.00 0.00 0.00 0.00 0.00 0.00 0.00 0.00 0.00 0.00 0.00 0.00 0.00 0.00 0.00 0.00 0.00 0.01
0.00 0.00 0.00 0.00 0.00 0.01 0.00 0.00 0.00 0.00 0.00 0.00 0.00 0.00 0.00 0.00 0.00 0.00 0.00 0.00 0.00 0.00 0.00 0.00 0.00 0.00 0.00 0.00 0.00 0.00 0.00 0.00 0.00 0.00 0.00 0.00 0.00 0.00 0.00 0.00 0.00 0.00 0.00 0.00 0.00 0.00 0.00 0.00 0.00
0.00 0.00 0.00 0.00 0.00 0.02 0.02 0.01 0.00 0.00 0.00 0.00 0.00 0.00 0.00 0.00 0.00 0.00 0.00 0.00 0.00 0.00 0.00 0.00 0.00 0.00 0.00 0.00 0.00 0.00 0.00 0.00 0.00 0.00 0.00 0.00 0.00 0.00 0.00 0.00 0.00 0.00 0.00 0.00 0.00 0.00 0.00 0.00 0.00
0.00 0.00 0.00 0.00 0.00 0.02 0.03 0.00 0.00 0.00 0.00 0.00 0.00 0.00 0.00 0.00 0.00 0.00 0.00 0.00 0.00 0.00 0.00 0.00 0.00 0.00 0.00 0.00 0.00 0.00 0.00 0.00 0.00 0.00 0.00 0.00 0.00 0.01 0.01 0.02 0.01 0.01 0.01 0.01 0.00 0.00 0.00 0.01 0.01
0.00 0.00 0.00 0.00 0.00 0.00 0.01 0.00 0.00 0.00 0.00 0.00 0.00 0.00 0.00 0.00 0.00 0.00 0.00 0.00 0.00 0.00 0.00 0.00 0.00 0.00 0.00 0.00 0.00 0.00 0.00 0.00 0.00 0.00 0.00 0.00 0.00 0.02 0.03 0.05 0.04 0.03 0.02 0.03 0.01 0.00 0.00 0.01 0.01
0.00 0.00 0.00 0.00 0.00 0.00 0.00 0.01 0.01 0.00 0.00 0.00 0.00 0.00 0.00 0.00 0.00 0.00 0.00 0.00 0.00 0.00 0.00 0.00 0.00 0.00 0.00 0.00 0.00 0.00 0.00 0.00 0.00 0.00 0.00 0.00 0.01 0.02 0.03 0.03 0.04 0.07 0.07 0.07 0.05 0.02 0.01 0.01 0.01
0.00 0.00 0.00 0.00 0.00 0.00 0.00 0.01 0.00 0.00 0.00 0.00 0.00 0.00 0.00 0.00 0.00 0.00 0.00 0.00 0.00 0.01 0.01 0.00 0.00 0.00 0.00 0.00 0.00 0.00 0.00 0.00 0.00 0.00 0.00 0.01 0.00 0.01 0.03 0.03 0.05 0.08 0.09 0.09 0.05 0.03 0.03 0.03 0.01
0.00 0.00 0.00 0.00 0.00 0.00 0.00 0.00 0.00 0.00 0.00 0.00 0.00 0.00 0.00 0.00 0.00 0.00 0.00 0.00 0.00 0.01 0.01 0.00 0.00 0.00 0.00 0.00 0.00 0.00 0.00 0.00 0.00 0.00 0.01 0.01 0.04 0.06 0.05 0.08 0.14 0.13 0.14 0.11 0.09 0.07 0.05 0.04 0.05
0.00 0.00 0.00 0.00 0.00 0.00 0.00 0.00 0.00 0.00 0.00 0.00 0.00 0.00 0.00 0.00 0.00 0.00 0.00 0.00 0.00 0.00 0.00 0.00 0.00 0.01 0.00 0.00 0.00 0.00 0.00 0.02 0.02 0.01 0.02 0.07 0.08 0.06 0.06 0.06 0.08 0.09 0.10 0.09 0.15 0.18 0.10 0.09 0.15
0.00 0.00 0.00 0.00 0.00 0.00 0.00 0.00 0.00 0.00 0.00 0.00 0.00 0.01 0.02 0.01 0.00 0.00 0.00 0.00 0.00 0.00 0.00 0.00 0.00 0.01 0.01 0.00 0.00 0.00 0.00 0.02 0.02 0.03 0.02 0.03 0.04 0.03 0.02 0.04 0.05 0.06 0.06 0.10 0.15 0.17 0.11 0.10 0.07
0.00 0.00 0.00 0.00 0.00 0.00 0.00 0.00 0.00 0.00 0.00 0.00 0.00 0.01 0.01 0.00 0.00 0.00 0.00 0.00 0.00 0.00 0.00 0.00 0.00 0.01 0.01 0.02 0.02 0.00 0.00 0.00 0.00 0.01 0.02 0.02 0.03 0.02 0.01 0.01 0.01 0.01 0.02 0.06 0.10 0.08 0.09 0.13 0.08
0.00 0.00 0.00 0.00 0.00 0.00 0.00 0.00 0.00 0.00 0.00 0.00 0.00 0.00 0.00 0.00 0.00 0.00 0.00 0.00 0.00 0.00 0.00 0.00 0.00 0.01 0.01 0.02 0.02 0.01 0.00 0.00 0.00 0.01 0.01 0.02 0.02 0.01 0.01 0.01 0.02 0.01 0.01 0.01 0.05 0.07 0.12 0.13 0.14
0.00 0.00 0.00 0.00 0.00 0.00 0.00 0.00 0.00 0.00 0.00 0.00 0.00 0.00 0.00 0.00 0.00 0.00 0.00 0.00 0.00 0.00 0.00 0.00 0.00 0.00 0.01 0.01 0.00 0.00 0.00 0.00 0.00 0.00 0.01 0.01 0.01 0.01 0.02 0.02 0.02 0.04 0.04 0.05 0.06 0.08 0.10 0.11 0.13
0.00 0.00 0.00 0.00 0.00 0.00 0.00 0.00 0.00 0.00 0.00 0.00 0.01 0.01 0.01 0.00 0.00 0.00 0.00 0.00 0.00 0.00 0.00 0.00 0.00 0.00 0.01 0.01 0.01 0.00 0.00 0.00 0.00 0.00 0.01 0.01 0.02 0.04 0.07 0.06 0.05 0.11 0.11 0.11 0.15 0.14 0.17 0.27 0.28
0.00 0.00 0.00 0.00 0.00 0.00 0.00 0.00 0.00 0.00 0.00 0.00 0.01 0.02 0.03 0.01 0.01 0.00 0.01 0.00 0.00 0.00 0.01 0.02 0.02 0.03 0.05 0.06 0.04 0.02 0.01 0.01 0.00 0.01 0.02 0.03 0.04 0.08 0.14 0.13 0.19 0.21 0.21 0.21 0.17 0.21 0.30 0.35 0.40
0.00 0.00 0.00 0.00 0.00 0.00 0.00 0.00 0.00 0.00 0.00 0.01 0.03 0.05 0.05 0.03 0.02 0.02 0.03 0.03 0.02 0.01 0.01 0.03 0.09 0.14 0.19 0.23 0.20 0.13 0.08 0.04 0.02 0.03 0.05 0.08 0.13 0.20 0.28 0.23 0.28 0.30 0.28 0.28 0.31 0.34 0.37 0.34 0.41
0.00 0.00 0.00 0.00 0.00 0.00 0.00 0.00 0.00 0.00 0.02 0.03 0.04 0.05 0.05 0.04 0.04 0.04 0.05 0.05 0.02 0.01 0.03 0.09 0.20 0.31 0.37 0.43 0.45 0.43 0.32 0.25 0.21 0.18 0.23 0.31 0.39 0.45 0.51 0.38 0.44 0.38 0.31 0.29 0.33 0.35 0.32 0.32 0.47
0.00 0.00 0.00 0.00 0.00 0.00 0.00 0.00 0.00 0.02 0.04 0.06 0.07 0.10 0.12 0.12 0.11 0.12 0.13 0.11 0.07 0.05 0.08 0.13 0.24 0.36 0.42 0.52 0.61 0.69 0.76 0.68 0.61 0.59 0.62 0.64 0.64 0.62 0.56 0.53 0.49 0.44 0.39 0.33 0.34 0.35 0.31 0.28 0.37
0.00 0.00 0.00 0.00 0.00 0.00 0.00 0.00 0.01 0.04 0.07 0.11 0.16 0.21 0.24 0.26 0.27 0.26 0.24 0.20 0.15 0.10 0.11 0.20 0.28 0.35 0.49 0.65 0.79 0.88 1.01 0.99 1.01 1.06 1.15 1.05 1.00 0.93 0.85 0.71 0.60 0.51 0.47 0.42 0.37 0.37 0.37 0.36 0.36
0.00 0.00 0.00 0.00 0.00 0.00 0.00 0.00 0.00 0.01 0.04 0.10 0.15 0.19 0.21 0.20 0.16 0.15 0.17 0.16 0.17 0.15 0.19 0.32 0.38 0.45 0.65 0.89 1.01 1.07 1.23 1.38 1.53 1.72 1.70 1.56 1.38 1.21 1.05 0.86 0.67 0.53 0.48 0.45 0.42 0.43 0.47 0.48 0.40
0.00 0.00 0.00 0.00 0.00 0.00 0.00 0.00 0.00 0.00 0.01 0.06 0.11 0.13 0.14 0.11 0.09 0.12 0.20 0.30 0.34 0.29 0.36 0.56 0.66 0.81 1.02 1.19 1.31 1.42 1.54 1.65 1.65 1.65 1.57 1.45 1.34 1.19 1.03 0.87 0.74 0.63 0.54 0.49 0.46 0.46 0.50 0.52 0.46
0.00 0.00 0.00 0.00 0.00 0.00 0.00 0.00 0.00 0.00 0.01 0.03 0.06 0.08 0.09 0.09 0.09 0.15 0.28 0.56 0.77 0.77 0.74 0.80 0.88 1.02 1.16 1.23 1.31 1.36 1.34 1.33 1.26 1.16 1.06 0.97 0.92 0.83 0.73 0.62 0.53 0.49 0.47 0.47 0.46 0.45 0.46 0.46 0.45
0.00 0.00 0.00 0.00 0.00 0.01 0.01 0.01 0.01 0.01 0.01 0.01 0.01 0.03 0.05 0.08 0.14 0.16 0.21 0.30 0.39 0.47 0.51 0.54 0.53 0.65 0.77 0.83 0.84 0.83 0.81 0.77 0.71 0.65 0.60 0.55 0.49 0.41 0.36 0.32 0.31 0.29 0.29 0.29 0.32 0.32 0.34 0.36 0.36
0.00 0.00 0.00 0.00 0.00 0.00 0.00 0.00 0.01 0.01 0.00 0.00 0.00 0.00 0.01 0.02 0.04 0.05 0.06 0.09 0.23 0.37 0.49 0.53 0.48 0.45 0.44 0.47 0.49 0.44 0.39 0.39 0.37 0.36 0.34 0.32 0.30 0.27 0.23 0.22 0.23 0.23 0.24 0.24 0.26 0.27 0.25 0.25 0.25
0.00 0.00 0.00 0.00 0.00 0.00 0.00 0.00 0.00 0.00 0.00 0.00 0.00 0.00 0.00 0.00 0.00 0.00 0.01 0.01 0.10 0.24 0.33 0.35 0.36 0.40 0.43 0.45 0.42 0.35 0.28 0.26 0.24 0.24 0.27 0.30 0.30 0.25 0.23 0.23 0.24 0.26 0.28 0.28 0.26 0.26 0.24 0.24 0.26
0.00 0.00 0.00 0.00 0.00 0.00 0.00 0.00 0.00 0.00 0.00 0.00 0.00 0.00 0.00 0.00 0.00 0.00 0.00 0.01 0.03 0.10 0.19 0.27 0.32 0.36 0.41 0.45 0.43 0.37 0.30 0.23 0.22 0.24 0.27 0.28 0.26 0.25 0.27 0.25 0.24 0.25 0.24 0.21 0.19 0.21 0.21 0.23 0.25
0.00 0.00 0.00 0.00 0.00 0.00 0.01 0.00 0.00 0.00 0.00 0.00 0.00 0.00 0.00 0.00 0.00 0.01 0.05 0.10 0.16 0.26 0.35 0.41 0.42 0.38 0.39 0.41 0.41 0.38 0.33 0.29 0.28 0.28 0.28 0.27 0.25 0.24 0.27 0.27 0.24 0.21 0.17 0.14 0.13 0.14 0.16 0.19 0.20
0.00 0.00 0.00 0.00 0.00 0.00 0.01 0.00 0.00 0.00 0.00 0.00 0.00 0.00 0.00 0.00 0.01 0.05 0.12 0.19 0.24 0.31 0.40 0.45 0.49 0.52 0.54 0.58 0.63 0.69 0.66 0.60 0.50 0.37 0.32 0.32 0.33 0.31 0.28 0.26 0.23 0.18 0.15 0.13 0.12 0.13 0.16 0.17 0.16

GEFSSGP_prec_meanprecacc_024.txt.gz
Total_Precipitation_Accumulation
0.00 0.00 0.00 0.03 0.02 0.02 0.03 0.00 0.00 0.00 0.00 0.00 0.00 0.00 0.00 0.00 0.01 0.03 0.00 0.00 0.00 0.00 0.00 0.00 0.00 0.00 0.00 0.00 0.00 0.00 0.00 0.00 0.00 0.00 0.00 0.00 0.00 0.00 0.00 0.00 0.00 0.00 0.00 0.00 0.00 0.00 0.00 0.00 0.00
0.00 0.00 0.00 0.01 0.02 0.06 0.04 0.00 0.00 0.00 0.00 0.00 0.00 0.00 0.00 0.00 0.00 0.00 0.00 0.00 0.00 0.00 0.00 0.00 0.00 0.00 0.00 0.00 0.00 0.00 0.00 0.00 0.00 0.00 0.00 0.00 0.00 0.00 0.00 0.00 0.00 0.00 0.00 0.00 0.00 0.00 0.00 0.00 0.00
0.00 0.00 0.00 0.00 0.01 0.08 0.06 0.00 0.00 0.00 0.00 0.00 0.00 0.00 0.00 0.00 0.00 0.00 0.00 0.00 0.00 0.00 0.00 0.00 0.00 0.00 0.00 0.00 0.00 0.00 0.00 0.00 0.00 0.00 0.00 0.00 0.00 0.00 0.00 0.00 0.00 0.00 0.00 0.00 0.00 0.00 0.00 0.00 0.01
0.00 0.00 0.00 0.00 0.01 0.05 0.04 0.02 0.01 0.00 0.00 0.00 0.00 0.00 0.00 0.00 0.00 0.00 0.00 0.00 0.00 0.00 0.00 0.00 0.00 0.00 0.00 0.00 0.00 0.00 0.00 0.00 0.00 0.00 0.00 0.00 0.00 0.00 0.00 0.00 0.00 0.00 0.00 0.00 0.00 0.00 0.00 0.00 0.00
0.00 0.00 0.00 0.00 0.01 0.08 0.07 0.03 0.02 0.01 0.00 0.00 0.00 0.00 0.00 0.00 0.00 0.00 0.00 0.00 0.00 0.00 0.00 0.00 0.00 0.00 0.00 0.00 0.00 0.00 0.00 0.00 0.00 0.00 0.00 0.00 0.00 0.00 0.00 0.00 0.00 0.00 0.00 0.00 0.00 0.00 0.00 0.00 0.00
0.00 0.00 0.00 0.00 0.01 0.03 0.06 0.03 0.02 0.01 0.00 0.00 0.00 0.00 0.00 0.00 0.00 0.00 0.00 0.00 0.00 0.00 0.00 0.00 0.00 0.00 0.00 0.00 0.00 0.00 0.00 0.00 0.00 0.00 0.00 0.00 0.00 0.01 0.01 0.02 0.01 0.01 0.01 0.01 0.00 0.00 0.00 0.01 0.01
0.00 0.00 0.00 0.00 0.01 0.01 0.02 0.02 0.01 0.01 0.01 0.01 0.00 0.00 0.01 0.00 0.00 0.00 0.00 0.00 0.00 0.00 0.00 0.00 0.00 0.00 0.00 0.00 0.00 0.00 0.00 0.00 0.00 0.00 0.00 0.00 0.00 0.02 0.03 0.05 0.04 0.03 0.02 0.03 0.01 0.00 0.00 0.01 0.01
0.00 0.00 0.00 0.00 0.00 0.00 0.01 0.01 0.01 0.01 0.01 0.01 0.00 0.00 0.00 0.00 0.00 0.00 0.00 0.00 0.00 0.00 0.00 0.00 0.00 0.00 0.00 0.00 0.00 0.00 0.00 0.00 0.00 0.00 0.00 0.00 0.01 0.02 0.03 0.03 0.04 0.07 0.07 0.07 0.05 0.02 0.01 0.01 0.01
0.00 0.00 0.00 0.00 0.00 0.00 0.00 0.01 0.01 0.00 0.00 0.00 0.00 0.00 0.00 0.00 0.00 0.00 0.00 0.00 0.00 0.01 0.01 0.00 0.00 0.00 0.00 0.00 0.00 0.00 0.00 0.00 0.00 0.00 0.00 0.01 0.00 0.01 0.03 0.03 0.05 0.08 0.09 0.09 0.05 0.03 0.03 0.03 0.01
0.00 0.00 0.00 0.00 0.00 0.00 0.00 0.00 0.00 0.00 0.00 0.00 0.00 0.01 0.01 0.00 0.00 0.00 0.00 0.00 0.00 0.01 0.01 0.00 0.00 0.00 0.00 0.00 0.00 0.00 0.00 0.00 0.00 0.00 0.01 0.01 0.04 0.06 0.05 0.08 0.14 0.13 0.14 0.11 0.09 0.07 0.05 0.04 0.05
0.00 0.00 0.00 0.00 0.00 0.00 0.00 0.00 0.00 0.00 0.00 0.00 0.00 0.01 0.02 0.01 0.00 0.00 0.00 0.00 0.00 0.00 0.00 0.00 0.00 0.01 0.00 0.00 0.00 0.00 0.00 0.02 0.02 0.01 0.02 0.07 0.08 0.06 0.06 0.06 0.08 0.09 0.11 0.09 0.15 0.18 0.10 0.09 0.15
0.00 0.00 0.00 0.00 0.00 0.00 0.00 0.00 0.00 0.00 0.00 0.00 0.00 0.02 0.05 0.04 0.01 0.00 0.00 0.00 0.00 0.00 0.00 0.00 0.00 0.01 0.01 0.00 0.00 0.00 0.00 0.02 0.02 0.03 0.02 0.03 0.04 0.03 0.02 0.04 0.05 0.06 0.06 0.10 0.16 0.18 0.11 0.11 0.08
0.00 0.00 0.00 0.00 0.00 0.00 0.00 0.00 0.00 0.00 0.00 0.00 0.00 0.01 0.01 0.01 0.00 0.00 0.00 0.00 0.00 0.00 0.00 0.00 0.00 0.01 0.01 0.02 0.02 0.00 0.00 0.00 0.00 0.01 0.02 0.02 0.03 0.02 0.01 0.01 0.02 0.02 0.03 0.07 0.10 0.09 0.10 0.14 0.09
0.00 0.00 0.00 0.00 0.00 0.00 0.00 0.00 0.00 0.00 0.00 0.00 0.00 0.00 0.00 0.00 0.00 0.01 0.01 0.00 0.01 0.01 0.00 0.00 0.01 0.01 0.02 0.02 0.02 0.01 0.00 0.00 0.01 0.01 0.01 0.02 0.02 0.02 0.02 0.01 0.03 0.02 0.01 0.02 0.06 0.08 0.14 0.14 0.15
0.00 0.00 0.00 0.00 0.00 0.00 0.00 0.00 0.00 0.00 0.00 0.00 0.00 0.00 0.00 0.00 0.01 0.01 0.01 0.01 0.02 0.01 0.02 0.02 0.01 0.01 0.01 0.01 0.01 0.01 0.01 0.01 0.03 0.02 0.02 0.03 0.02 0.02 0.03 0.03 0.03 0.04 0.05 0.06 0.07 0.10 0.12 0.14 0.16
0.00 0.00 0.00 0.00 0.00 0.00 0.00 0.00 0.00 0.00 0.00 0.00 0.01 0.01 0.01 0.01 0.01 0.01 0.02 0.02 0.02 0.03 0.04 0.05 0.05 0.04 0.04 0.05 0.05 0.04 0.04 0.04 0.04 0.05 0.06 0.06 0.06 0.07 0.11 0.09 0.08 0.14 0.15 0.14 0.19 0.19 0.23 0.34 0.37
0.00 0.00 0.00 0.00 0.00 0.00 0.00 0.00 0.00 0.00 0.00 0.00 0.01 0.02 0.03 0.02 0.01 0.02 0.04 0.05 0.05 0.05 0.07 0.12 0.14 0.16 0.20 0.21 0.19 0.15 0.11 0.08 0.06 0.07 0.10 0.13 0.16 0.20 0.28 0.26 0.29 0.33 0.32 0.31 0.27 0.32 0.42 0.47 0.55
0.00 0.00 0.00 0.00 0.00 0.00 0.00 0.00 0.00 0.00 0.00 0.01 0.03 0.05 0.05 0.03 0.03 0.04 0.07 0.07 0.06 0.06 0.10 0.16 0.29 0.38 0.46 0.49 0.43 0.33 0.24 0.16 0.13 0.13 0.16 0.22 0.28 0.38 0.53 0.49 0.52 0.53 0.49 0.46 0.50 0.53 0.58 0.54 0.62
0.00 0.00 0.00 0.00 0.00 0.00 0.00 0.00 0.00 0.00 0.02 0.03 0.04 0.05 0.06 0.05 0.06 0.06 0.06 0.06 0.03 0.04 0.08 0.19 0.35 0.48 0.56 0.62 0.61 0.58 0.46 0.42 0.34 0.32 0.37 0.46 0.54 0.66 0.84 0.73 0.78 0.75 0.67 0.60 0.65 0.68 0.61 0.55 0.71
0.00 0.00 0.00 0.00 0.00 0.00 0.00 0.00 0.00 0.02 0.04 0.06 0.07 0.10 0.13 0.13 0.13 0.14 0.15 0.12 0.09 0.08 0.11 0.17 0.31 0.42 0.48 0.60 0.72 0.79 0.87 0.77 0.68 0.67 0.73 0.75 0.81 0.85 0.92 0.96 0.91 0.88 0.81 0.68 0.66 0.68 0.58 0.48 0.59
0.00 0.00 0.00 0.00 0.00 0.00 0.00 0.00 0.01 0.04 0.07 0.12 0.17 0.22 0.26 0.28 0.31 0.31 0.28 0.23 0.16 0.11 0.12 0.21 0.29 0.37 0.52 0.69 0.85 0.95 1.08 1.03 1.04 1.11 1.20 1.11 1.12 1.09 1.11 1.02 0.97 0.91 0.87 0.73 0.65 0.67 0.64 0.56 0.57
0.00 0.00 0.00 0.00 0.00 0.00 0.00 0.00 0.00 0.01 0.04 0.11 0.18 0.23 0.28 0.29 0.25 0.20 0.20 0.18 0.17 0.15 0.19 0.32 0.38 0.46 0.66 0.91 1.03 1.10 1.27 1.41 1.57 1.78 1.73 1.58 1.43 1.29 1.18 1.02 0.88 0.77 0.75 0.68 0.63 0.68 0.70 0.68 0.55
0.00 0.00 0.00 0.00 0.00 0.00 0.00 0.00 0.00 0.01 0.03 0.10 0.16 0.19 0.22 0.19 0.14 0.15 0.21 0.30 0.34 0.29 0.36 0.56 0.66 0.81 1.02 1.19 1.32 1.43 1.55 1.65 1.67 1.67 1.58 1.46 1.36 1.22 1.09 0.96 0.85 0.77 0.70 0.63 0.60 0.60 0.61 0.62 0.56
0.00 0.00 0.00 0.00 0.00 0.00 0.01 0.02 0.01 0.02 0.03 0.07 0.10 0.13 0.13 0.10 0.09 0.15 0.28 0.56 0.77 0.77 0.74 0.80 0.88 1.02 1.16 1.24 1.32 1.36 1.35 1.33 1.26 1.17 1.07 0.98 0.93 0.84 0.76 0.67 0.59 0.57 0.55 0.55 0.53 0.51 0.52 0.52 0.53
0.00 0.00 0.00 0.00 0.00 0.01 0.01 0.01 0.02 0.03 0.04 0.06 0.07 0.06 0.06 0.08 0.14 0.16 0.21 0.30 0.39 0.47 0.51 0.54 0.53 0.65 0.77 0.83 0.84 0.84 0.81 0.77 0.71 0.66 0.61 0.56 0.51 0.44 0.39 0.36 0.35 0.34 0.35 0.35 0.36 0.36 0.37 0.39 0.41
0.00 0.00 0.00 0.00 0.00 0.00 0.00 0.01 0.02 0.03 0.02 0.02 0.02 0.01 0.01 0.02 0.04 0.05 0.06 0.09 0.23 0.37 0.49 0.53 0.48 0.45 0.44 0.47 0.49 0.44 0.40 0.40 0.38 0.37 0.36 0.34 0.34 0.31 0.28 0.27 0.29 0.29 0.29 0.28 0.30 0.31 0.29 0.29 0.31
0.00 0.00 0.00 0.00 0.00 0.00 0.00 0.01 0.02 0.02 0.01 0.01 0.02 0.01 0.01 0.01 0.00 0.00 0.01 0.01 0.10 0.24 0.33 0.35 0.36 0.40 0.43 0.45 0.43 0.35 0.29 0.27 0.25 0.25 0.29 0.32 0.34 0.32 0.31 0.33 0.35 0.37 0.40 0.38 0.35 0.33 0.31 0.33 0.34
0.00 0.00 0.00 0.00 0.00 0.00 0.00 0.00 0.00 0.01 0.01 0.01 0.01 0.01 0.01 0.00 0.00 0.00 0.00 0.01 0.03 0.10 0.19 0.27 0.32 0.36 0.41 0.45 0.44 0.38 0.30 0.24 0.22 0.25 0.29 0.30 0.30 0.32 0.36 0.37 0.40 0.41 0.39 0.36 0.31 0.31 0.31 0.35 0.37
0.01 0.01 0.00 0.00 0.00 0.01 0.01 0.00 0.00 0.01 0.01 0.00 0.00 0.00 0.00 0.00 0.00 0.01 0.05 0.10 0.16 0.26 0.35 0.41 0.42 0.38 0.39 0.41 0.41 0.38 0.33 0.30 0.28 0.29 0.29 0.29 0.28 0.29 0.33 0.37 0.38 0.38 0.37 0.34 0.31 0.31 0.31 0.33 0.34
0.00 0.00 0.00 0.00 0.00 0.00 0.01 0.00 0.00 0.01 0.01 0.00 0.00 0.00 0.00 0.00 0.01 0.05 0.12 0.19 0.24 0.31 0.40 0.45 0.49 0.52 0.54 0.58 0.63 0.69 0.66 0.60 0.51 0.38 0.33 0.34 0.37 0.36 0.36 0.39 0.39 0.38 0.39 0.42 0.41 0.36 0.37 0.36 0.34

GEFSSGP_prec_meanprecacc_030.txt.gz
Total_Precipitation_Accumulation
0.00 0.01 0.03 0.06 0.03 0.03 0.03 0.00 0.00 0.00 0.00 0.00 0.00 0.00 0.00 0.00 0.01 0.03 0.00 0.00 0.00 0.00 0.00 0.00 0.00 0.00 0.00 0.00 0.00 0.00 0.00 0.00 0.00 0.00 0.00 0.00 0.00 0.00 0.00 0.00 0.00 0.00 0.00 0.00 0.00 0.00 0.00 0.00 0.00
0.00 0.00 0.01 0.02 0.02 0.06 0.04 0.00 0.00 0.00 0.00 0.00 0.00 0.00 0.00 0.00 0.00 0.00 0.00 0.00 0.00 0.00 0.00 0.00 0.00 0.00 0.00 0.00 0.00 0.00 0.00 0.00 0.00 0.00 0.00 0.00 0.00 0.00 0.00 0.00 0.00 0.00 0.00 0.00 0.00 0.00 0.00 0.00 0.00
0.00 0.00 0.00 0.01 0.02 0.08 0.06 0.01 0.00 0.00 0.00 0.00 0.00 0.00 0.00 0.00 0.00 0.00 0.00 0.00 0.00 0.00 0.00 0.00 0.00 0.00 0.00 0.00 0.00 0.00 0.00 0.00 0.00 0.00 0.00 0.00 0.00 0.00 0.00 0.00 0.00 0.00 0.00 0.00 0.00 0.00 0.00 0.00 0.01
0.00 0.00 0.00 0.00 0.02 0.06 0.04 0.02 0.01 0.01 0.00 0.00 0.00 0.00 0.00 0.00 0.00 0.00 0.00 0.00 0.00 0.00 0.00 0.00 0.00 0.00 0.00 0.00 0.00 0.00 0.00 0.00 0.00 0.00 0.00 0.00 0.00 0.00 0.00 0.00 0.00 0.00 0.00 0.00 0.00 0.00 0.00 0.00 0.00
0.00 0.00 0.00 0.00 0.02 0.09 0.08 0.04 0.02 0.01 0.00 0.00 0.00 0.00 0.00 0.00 0.00 0.00 0.00 0.00 0.00 0.00 0.00 0.00 0.00 0.00 0.00 0.00 0.00 0.00 0.00 0.00 0.00 0.00 0.00 0.00 0.00 0.00 0.00 0.00 0.00 0.00 0.00 0.00 0.00 0.00 0.00 0.00 0.00
0.00 0.00 0.00 0.00 0.01 0.04 0.06 0.04 0.03 0.02 0.01 0.00 0.00 0.00 0.00 0.00 0.00 0.00 0.00 0.00 0.00 0.00 0.00 0.00 0.00 0.00 0.00 0.00 0.00 0.00 0.00 0.00 0.00 0.00 0.00 0.00 0.00 0.01 0.01 0.02 0.01 0.01 0.01 0.01 0.00 0.00 0.00 0.01 0.01
0.00 0.00 0.00 0.00 0.01 0.01 0.02 0.03 0.02 0.01 0.01 0.01 0.00 0.00 0.01 0.00 0.00 0.00 0.00 0.00 0.00 0.00 0.00 0.00 0.00 0.00 0.00 0.00 0.00 0.00 0.00 0.00 0.00 0.00 0.00 0.00 0.00 0.02 0.03 0.05 0.04 0.03 0.02 0.03 0.02 0.00 0.00 0.01 0.01
0.00 0.00 0.00 0.00 0.00 0.00 0.01 0.01 0.01 0.01 0.01 0.01 0.00 0.00 0.00 0.00 0.00 0.00 0.00 0.00 0.00 0.00 0.00 0.00 0.00 0.00 0.00 0.00 0.00 0.00 0.00 0.00 0.00 0.00 0.00 0.01 0.01 0.02 0.03 0.03 0.05 0.07 0.07 0.07 0.05 0.02 0.01 0.01 0.01
0.00 0.00 0.00 0.00 0.00 0.00 0.00 0.01 0.01 0.00 0.00 0.00 0.00 0.00 0.00 0.00 0.00 0.00 0.00 0.00 0.00 0.01 0.01 0.00 0.00 0.00 0.00 0.00 0.00 0.00 0.00 0.00 0.00 0.00 0.00 0.01 0.00 0.01 0.03 0.03 0.05 0.08 0.09 0.09 0.05 0.03 0.03 0.03 0.02
0.00 0.00 0.00 0.00 0.00 0.00 0.00 0.00 0.00 0.00 0.00 0.00 0.00 0.01 0.01 0.00 0.00 0.00 0.00 0.00 0.00 0.01 0.01 0.00 0.00 0.00 0.00 0.00 0.00 0.00 0.00 0.00 0.00 0.00 0.01 0.01 0.04 0.06 0.05 0.08 0.14 0.13 0.14 0.11 0.09 0.08 0.05 0.05 0.05
0.00 0.00 0.00 0.00 0.00 0.00 0.00 0.00 0.00 0.00 0.00 0.00 0.00 0.01 0.02 0.01 0.00 0.00 0.00 0.00 0.00 0.00 0.00 0.00 0.00 0.01 0.01 0.00 0.00 0.00 0.00 0.02 0.02 0.01 0.02 0.07 0.08 0.06 0.06 0.06 0.08 0.09 0.11 0.09 0.16 0.19 0.10 0.09 0.16
0.00 0.00 0.00 0.00 0.00 0.00 0.00 0.00 0.00 0.00 0.00 0.00 0.00 0.02 0.05 0.04 0.01 0.00 0.00 0.00 0.00 0.00 0.00 0.01 0.01 0.01 0.01 0.01 0.01 0.00 0.00 0.02 0.02 0.03 0.02 0.03 0.04 0.03 0.02 0.04 0.05 0.06 0.06 0.10 0.16 0.19 0.13 0.12 0.09
0.00 0.00 0.00 0.00 0.00 0.00 0.00 0.00 0.00 0.00 0.00 0.00 0.00 0.01 0.01 0.01 0.00 0.00 0.00 0.00 0.00 0.00 0.01 0.02 0.02 0.03 0.04 0.05 0.05 0.02 0.01 0.01 0.01 0.02 0.02 0.02 0.04 0.03 0.02 0.02 0.03 0.03 0.03 0.08 0.13 0.14 0.16 0.20 0.14
0.00 0.00 0.00 0.00 0.00 0.00 0.00 0.00 0.00 0.00 0.00 0.00 0.00 0.00 0.00 0.00 0.01 0.01 0.01 0.01 0.01 0.01 0.02 0.03 0.05 0.08 0.11 0.11 0.10 0.07 0.05 0.04 0.03 0.04 0.04 0.05 0.05 0.06 0.07 0.06 0.07 0.07 0.07 0.09 0.16 0.22 0.30 0.29 0.29
0.00 0.00 0.00 0.00 0.00 0.00 0.00 0.00 0.00 0.00 0.00 0.00 0.00 0.00 0.00 0.01 0.01 0.01 0.01 0.02 0.03 0.03 0.05 0.07 0.13 0.20 0.21 0.17 0.13 0.12 0.13 0.12 0.12 0.14 0.16 0.16 0.14 0.15 0.19 0.17 0.15 0.20 0.25 0.28 0.32 0.37 0.42 0.38 0.39
0.00 0.00 0.00 0.00 0.00 0.00 0.00 0.00 0.00 0.00 0.00 0.00 0.01 0.01 0.01 0.01 0.01 0.02 0.03 0.03 0.04 0.06 0.10 0.16 0.25 0.29 0.28 0.26 0.26 0.22 0.21 0.22 0.23 0.26 0.26 0.27 0.29 0.32 0.36 0.29 0.26 0.45 0.52 0.55 0.61 0.59 0.59 0.66 0.65
0.00 0.00 0.00 0.00 0.00 0.00 0.00 0.00 0.00 0.00 0.00 0.00 0.01 0.02 0.03 0.02 0.02 0.03 0.05 0.07 0.08 0.10 0.16 0.30 0.40 0.45 0.47 0.40 0.34 0.33 0.34 0.32 0.28 0.30 0.31 0.37 0.46 0.53 0.62 0.49 0.49 0.73 0.80 0.80 0.79 0.81 0.89 0.89 0.90
0.00 0.00 0.00 0.00 0.00 0.00 0.00 0.00 0.00 0.00 0.00 0.01 0.03 0.05 0.05 0.04 0.04 0.06 0.09 0.10 0.10 0.12 0.18 0.28 0.41 0.52 0.62 0.63 0.57 0.49 0.41 0.34 0.31 0.32 0.34 0.40 0.48 0.67 0.87 0.69 0.74 0.94 0.95 0.91 1.00 1.06 1.10 0.98 0.99
0.00 0.00 0.00 0.00 0.00 0.00 0.00 0.00 0.00 0.00 0.02 0.03 0.04 0.06 0.06 0.06 0.08 0.09 0.11 0.10 0.08 0.08 0.14 0.26 0.42 0.55 0.64 0.72 0.74 0.68 0.53 0.48 0.41 0.39 0.44 0.54 0.63 0.80 1.06 0.91 0.97 1.04 0.98 0.93 1.06 1.11 1.01 0.88 1.09
0.00 0.00 0.00 0.00 0.00 0.00 0.00 0.00 0.01 0.02 0.05 0.07 0.08 0.11 0.15 0.15 0.17 0.19 0.21 0.17 0.12 0.11 0.14 0.20 0.32 0.43 0.50 0.62 0.74 0.82 0.88 0.78 0.69 0.69 0.77 0.80 0.87 0.94 1.05 1.08 1.04 1.05 1.00 0.87 0.87 0.99 0.90 0.70 0.92
0.00 0.00 0.00 0.00 0.00 0.00 0.00 0.00 0.01 0.04 0.07 0.13 0.18 0.24 0.28 0.31 0.35 0.35 0.32 0.25 0.17 0.11 0.12 0.21 0.29 0.37 0.52 0.69 0.85 0.96 1.08 1.04 1.05 1.12 1.20 1.12 1.14 1.12 1.17 1.09 1.04 1.01 1.01 0.85 0.78 0.90 0.92 0.75 0.77
0.00 0.00 0.00 0.00 0.00 0.00 0.00 0.00 0.00 0.01 0.05 0.13 0.20 0.25 0.30 0.32 0.28 0.23 0.22 0.19 0.17 0.16 0.19 0.32 0.38 0.46 0.66 0.91 1.03 1.10 1.27 1.41 1.57 1.78 1.73 1.58 1.44 1.30 1.20 1.04 0.91 0.81 0.81 0.74 0.71 0.81 0.86 0.85 0.69
0.00 0.00 0.00 0.00 0.00 0.00 0.00 0.00 0.00 0.01 0.04 0.11 0.18 0.21 0.24 0.21 0.16 0.15 0.22 0.31 0.34 0.29 0.36 0.56 0.66 0.81 1.02 1.19 1.32 1.43 1.55 1.65 1.67 1.67 1.58 1.46 1.36 1.22 1.09 0.96 0.86 0.79 0.72 0.66 0.64 0.66 0.68 0.69 0.63
0.00 0.00 0.00 0.00 0.00 0.00 0.01 0.02 0.01 0.02 0.04 0.07 0.10 0.14 0.14 0.11 0.10 0.15 0.28 0.56 0.77 0.77 0.74 0.80 0.88 1.02 1.16 1.24 1.32 1.36 1.35 1.33 1.26 1.17 1.07 0.98 0.93 0.84 0.76 0.67 0.59 0.57 0.56 0.56 0.55 0.54 0.54 0.54 0.55
0.00 0.00 0.00 0.00 0.00 0.01 0.01 0.01 0.02 0.03 0.04 0.06 0.07 0.06 0.06 0.09 0.14 0.16 0.21 0.30 0.39 0.47 0.51 0.54 0.53 0.65 0.77 0.83 0.84 0.84 0.81 0.77 0.71 0.66 0.61 0.56 0.51 0.44 0.39 0.36 0.35 0.35 0.35 0.36 0.37 0.37 0.38 0.40 0.42
0.00 0.00 0.00 0.00 0.00 0.00 0.00 0.01 0.02 0.03 0.02 0.02 0.02 0.02 0.01 0.02 0.04 0.05 0.06 0.09 0.23 0.37 0.49 0.53 0.48 0.45 0.44 0.47 0.49 0.44 0.40 0.40 0.38 0.37 0.36 0.34 0.34 0.32 0.28 0.27 0.29 0.29 0.30 0.29 0.31 0.31 0.30 0.30 0.32
0.00 0.00 0.00 0.00 0.00 0.00 0.00 0.01 0.02 0.02 0.01 0.01 0.02 0.01 0.01 0.01 0.01 0.00 0.01 0.01 0.10 0.24 0.33 0.35 0.36 0.40 0.43 0.45 0.43 0.35 0.29 0.27 0.25 0.25 0.29 0.33 0.34 0.32 0.31 0.33 0.36 0.38 0.41 0.40 0.37 0.35 0.32 0.34 0.36
0.00 0.00 0.00 0.00 0.00 0.00 0.00 0.00 0.00 0.01 0.01 0.01 0.01 0.01 0.01 0.00 0.00 0.00 0.00 0.01 0.03 0.10 0.19 0.27 0.32 0.36 0.41 0.45 0.44 0.38 0.30 0.24 0.22 0.25 0.29 0.30 0.30 0.32 0.36 0.37 0.40 0.42 0.41 0.39 0.35 0.34 0.33 0.37 0.40
0.01 0.01 0.00 0.00 0.00 0.01 0.01 0.00 0.00 0.01 0.01 0.00 0.00 0.00 0.00 0.00 0.00 0.01 0.05 0.10 0.16 0.26 0.35 0.41 0.42 0.38 0.39 0.41 0.41 0.38 0.33 0.30 0.28 0.29 0.29 0.29 0.28 0.29 0.34 0.38 0.39 0.40 0.40 0.39 0.39 0.38 0.38 0.40 0.42
0.00 0.00 0.00 0.00 0.00 0.00 0.01 0.00 0.00 0.01 0.01 0.00 0.00 0.00 0.00 0.00 0.01 0.05 0.12 0.19 0.24 0.31 0.40 0.45 0.49 0.52 0.54 0.58 0.63 0.69 0.66 0.60 0.51 0.38 0.33 0.34 0.37 0.37 0.37 0.39 0.41 0.41 0.44 0.49 0.53 0.51 0.52 0.52 0.50

GEFSSGP_prec_meanprecacc_036.txt.gz
Total_Precipitation_Accumulation
0.00 0.01 0.04 0.06 0.03 0.03 0.03 0.00 0.00 0.00 0.00 0.00 0.00 0.00 0.00 0.00 0.01 0.03 0.00 0.00 0.00 0.00 0.00 0.00 0.00 0.00 0.00 0.00 0.00 0.00 0.00 0.00 0.00 0.00 0.00 0.00 0.00 0.00 0.00 0.00 0.00 0.00 0.00 0.00 0.00 0.00 0.00 0.00 0.00
0.00 0.00 0.01 0.03 0.02 0.06 0.04 0.00 0.00 0.00 0.00 0.00 0.00 0.00 0.00 0.00 0.00 0.00 0.00 0.00 0.00 0.00 0.00 0.00 0.00 0.00 0.00 0.00 0.00 0.00 0.00 0.00 0.00 0.00 0.00 0.00 0.00 0.00 0.00 0.00 0.00 0.00 0.00 0.00 0.00 0.00 0.00 0.00 0.00
0.00 0.00 0.00 0.01 0.02 0.08 0.07 0.01 0.00 0.00 0.00 0.00 0.00 0.00 0.00 0.00 0.00 0.00 0.00 0.00 0.00 0.00 0.00 0.00 0.00 0.00 0.00 0.00 0.00 0.00 0.00 0.00 0.00 0.00 0.00 0.00 0.00 0.00 0.00 0.00 0.00 0.00 0.00 0.00 0.00 0.00 0.00 0.00 0.01
0.00 0.00 0.00 0.00 0.02 0.06 0.05 0.02 0.01 0.01 0.00 0.00 0.00 0.00 0.00 0.00 0.00 0.00 0.00 0.00 0.00 0.00 0.00 0.00 0.00 0.00 0.00 0.00 0.00 0.00 0.00 0.00 0.00 0.00 0.00 0.00 0.00 0.00 0.00 0.00 0.00 0.00 0.00 0.00 0.00 0.00 0.00 0.00 0.01
0.00 0.00 0.00 0.00 0.02 0.09 0.08 0.04 0.02 0.01 0.00 0.00 0.00 0.00 0.00 0.00 0.00 0.00 0.00 0.00 0.00 0.00 0.00 0.00 0.00 0.00 0.00 0.00 0.00 0.00 0.00 0.00 0.00 0.00 0.00 0.00 0.00 0.00 0.00 0.00 0.00 0.00 0.00 0.00 0.01 0.01 0.01 0.00 0.00
0.00 0.00 0.00 0.00 0.01 0.04 0.07 0.04 0.03 0.02 0.01 0.00 0.00 0.00 0.00 0.00 0.00 0.00 0.00 0.00 0.00 0.00 0.00 0.00 0.00 0.00 0.00 0.00 0.00 0.00 0.00 0.00 0.00 0.00 0.00 0.00 0.00 0.01 0.01 0.02 0.01 0.01 0.01 0.01 0.01 0.01 0.01 0.01 0.01
0.00 0.00 0.00 0.00 0.01 0.01 0.02 0.03 0.02 0.01 0.01 0.01 0.00 0.00 0.01 0.00 0.00 0.00 0.00 0.00 0.00 0.00 0.00 0.00 0.00 0.00 0.00 0.00 0.00 0.00 0.00 0.00 0.00 0.00 0.00 0.00 0.00 0.02 0.03 0.05 0.04 0.03 0.03 0.03 0.02 0.01 0.01 0.02 0.02
0.00 0.00 0.00 0.00 0.00 0.00 0.01 0.01 0.01 0.01 0.01 0.01 0.00 0.00 0.00 0.00 0.00 0.00 0.00 0.00 0.00 0.00 0.00 0.00 0.00 0.00 0.00 0.00 0.00 0.00 0.00 0.00 0.00 0.00 0.00 0.01 0.01 0.02 0.03 0.03 0.05 0.07 0.08 0.08 0.05 0.03 0.02 0.02 0.02
0.00 0.00 0.00 0.00 0.00 0.00 0.00 0.01 0.01 0.00 0.00 0.00 0.00 0.00 0.00 0.00 0.00 0.00 0.00 0.00 0.00 0.01 0.01 0.00 0.00 0.00 0.00 0.00 0.00 0.00 0.01 0.00 0.00 0.01 0.01 0.01 0.01 0.01 0.03 0.03 0.05 0.08 0.09 0.09 0.06 0.03 0.04 0.04 0.03
0.00 0.00 0.00 0.00 0.00 0.00 0.00 0.00 0.00 0.00 0.00 0.00 0.00 0.01 0.01 0.00 0.00 0.00 0.00 0.00 0.00 0.01 0.01 0.01 0.00 0.00 0.00 0.00 0.00 0.00 0.00 0.01 0.01 0.01 0.02 0.03 0.06 0.07 0.05 0.08 0.14 0.13 0.14 0.12 0.10 0.08 0.07 0.07 0.09
0.00 0.00 0.00 0.00 0.00 0.00 0.00 0.00 0.00 0.00 0.00 0.00 0.00 0.01 0.02 0.01 0.00 0.00 0.00 0.00 0.00 0.00 0.00 0.00 0.00 0.01 0.01 0.00 0.00 0.00 0.00 0.03 0.03 0.02 0.04 0.09 0.10 0.08 0.07 0.06 0.09 0.10 0.11 0.09 0.17 0.21 0.14 0.16 0.25
0.00 0.00 0.00 0.00 0.00 0.00 0.00 0.00 0.00 0.00 0.00 0.00 0.00 0.02 0.05 0.04 0.01 0.00 0.00 0.00 0.00 0.00 0.01 0.01 0.01 0.01 0.01 0.01 0.01 0.01 0.01 0.02 0.02 0.04 0.03 0.04 0.05 0.04 0.03 0.05 0.05 0.06 0.06 0.11 0.17 0.20 0.17 0.22 0.20
0.00 0.00 0.00 0.00 0.00 0.00 0.00 0.00 0.00 0.00 0.00 0.00 0.00 0.01 0.01 0.01 0.00 0.00 0.00 0.00 0.00 0.00 0.01 0.02 0.02 0.03 0.05 0.06 0.05 0.03 0.01 0.01 0.01 0.02 0.03 0.03 0.05 0.03 0.03 0.03 0.04 0.04 0.06 0.11 0.17 0.19 0.25 0.32 0.28
0.00 0.00 0.00 0.00 0.00 0.00 0.00 0.00 0.00 0.00 0.00 0.00 0.00 0.00 0.00 0.00 0.01 0.01 0.01 0.01 0.01 0.02 0.03 0.05 0.07 0.10 0.12 0.13 0.10 0.08 0.06 0.05 0.04 0.04 0.05 0.06 0.07 0.09 0.11 0.10 0.12 0.11 0.13 0.16 0.23 0.31 0.45 0.46 0.46
0.00 0.00 0.00 0.00 0.00 0.00 0.00 0.00 0.00 0.00 0.00 0.00 0.00 0.00 0.00 0.01 0.01 0.01 0.01 0.02 0.03 0.04 0.06 0.10 0.17 0.23 0.23 0.18 0.14 0.13 0.14 0.14 0.15 0.18 0.22 0.24 0.23 0.26 0.33 0.28 0.24 0.30 0.36 0.38 0.42 0.50 0.59 0.56 0.55
0.00 0.00 0.00 0.00 0.00 0.00 0.00 0.00 0.00 0.00 0.00 0.00 0.01 0.01 0.01 0.01 0.01 0.02 0.03 0.04 0.04 0.07 0.11 0.20 0.30 0.33 0.31 0.29 0.28 0.25 0.25 0.26 0.29 0.33 0.34 0.39 0.45 0.52 0.53 0.41 0.35 0.58 0.65 0.66 0.73 0.74 0.77 0.85 0.84
0.00 0.00 0.00 0.00 0.00 0.00 0.00 0.00 0.00 0.00 0.00 0.00 0.01 0.02 0.03 0.02 0.02 0.03 0.05 0.08 0.09 0.12 0.20 0.35 0.43 0.47 0.50 0.43 0.37 0.36 0.37 0.34 0.32 0.36 0.39 0.48 0.60 0.69 0.76 0.58 0.57 0.86 0.96 0.94 0.95 0.99 1.10 1.10 1.09
0.00 0.00 0.00 0.00 0.00 0.00 0.00 0.00 0.00 0.00 0.00 0.01 0.03 0.05 0.05 0.04 0.05 0.07 0.10 0.10 0.11 0.16 0.24 0.32 0.44 0.56 0.66 0.66 0.59 0.50 0.42 0.35 0.34 0.36 0.39 0.46 0.56 0.77 0.97 0.76 0.81 1.07 1.09 1.05 1.15 1.23 1.32 1.20 1.24
0.00 0.00 0.00 0.00 0.00 0.00 0.00 0.00 0.00 0.00 0.02 0.03 0.04 0.06 0.06 0.06 0.08 0.09 0.11 0.12 0.11 0.12 0.17 0.29 0.45 0.57 0.65 0.73 0.74 0.68 0.53 0.49 0.42 0.41 0.46 0.56 0.66 0.84 1.11 0.96 1.03 1.12 1.06 1.02 1.17 1.27 1.21 1.08 1.40
0.00 0.00 0.00 0.00 0.00 0.00 0.00 0.00 0.01 0.02 0.05 0.07 0.08 0.12 0.15 0.16 0.17 0.20 0.22 0.19 0.14 0.13 0.16 0.21 0.33 0.44 0.50 0.63 0.74 0.82 0.88 0.78 0.69 0.70 0.77 0.80 0.88 0.95 1.07 1.11 1.06 1.09 1.05 0.91 0.94 1.10 1.02 0.81 1.14
0.00 0.00 0.00 0.00 0.00 0.00 0.00 0.00 0.01 0.04 0.08 0.13 0.18 0.25 0.29 0.32 0.36 0.37 0.34 0.27 0.19 0.12 0.12 0.21 0.29 0.37 0.52 0.69 0.85 0.96 1.09 1.04 1.05 1.12 1.20 1.12 1.14 1.12 1.17 1.09 1.05 1.02 1.02 0.86 0.80 0.94 0.98 0.82 0.89
0.00 0.00 0.00 0.00 0.00 0.00 0.00 0.00 0.00 0.02 0.05 0.13 0.21 0.27 0.33 0.36 0.32 0.27 0.26 0.22 0.19 0.16 0.19 0.32 0.38 0.46 0.66 0.91 1.04 1.11 1.27 1.41 1.57 1.78 1.73 1.58 1.44 1.30 1.20 1.04 0.91 0.81 0.81 0.74 0.71 0.82 0.89 0.91 0.75
0.00 0.00 0.00 0.00 0.00 0.00 0.00 0.00 0.00 0.01 0.04 0.12 0.19 0.24 0.29 0.27 0.21 0.21 0.26 0.34 0.37 0.30 0.36 0.56 0.66 0.81 1.03 1.20 1.33 1.44 1.55 1.66 1.67 1.67 1.58 1.46 1.36 1.22 1.09 0.96 0.86 0.79 0.73 0.67 0.65 0.67 0.70 0.72 0.66
0.00 0.00 0.00 0.00 0.00 0.00 0.01 0.02 0.01 0.02 0.04 0.07 0.12 0.17 0.19 0.17 0.16 0.20 0.31 0.58 0.79 0.78 0.75 0.80 0.88 1.03 1.17 1.25 1.33 1.38 1.36 1.34 1.27 1.17 1.07 0.98 0.93 0.84 0.76 0.67 0.59 0.57 0.57 0.57 0.57 0.56 0.56 0.57 0.58
0.00 0.00 0.00 0.00 0.00 0.01 0.01 0.01 0.02 0.03 0.04 0.06 0.08 0.08 0.09 0.12 0.19 0.21 0.24 0.32 0.41 0.48 0.52 0.54 0.53 0.66 0.78 0.84 0.85 0.86 0.83 0.79 0.72 0.66 0.61 0.56 0.51 0.44 0.39 0.36 0.35 0.35 0.36 0.37 0.39 0.39 0.41 0.44 0.47
0.00 0.00 0.00 0.00 0.00 0.00 0.00 0.01 0.02 0.03 0.02 0.02 0.03 0.03 0.04 0.05 0.08 0.09 0.09 0.12 0.25 0.39 0.50 0.54 0.48 0.45 0.44 0.47 0.49 0.45 0.42 0.41 0.39 0.38 0.36 0.34 0.34 0.32 0.28 0.27 0.29 0.30 0.30 0.30 0.33 0.34 0.33 0.34 0.37
0.00 0.00 0.00 0.00 0.00 0.00 0.00 0.01 0.02 0.02 0.01 0.01 0.02 0.02 0.02 0.02 0.02 0.02 0.03 0.04 0.12 0.26 0.34 0.36 0.36 0.40 0.43 0.46 0.43 0.35 0.29 0.28 0.26 0.26 0.29 0.33 0.34 0.32 0.31 0.33 0.36 0.38 0.41 0.41 0.38 0.37 0.36 0.39 0.42
0.00 0.00 0.00 0.00 0.00 0.00 0.00 0.00 0.01 0.01 0.01 0.01 0.01 0.01 0.01 0.01 0.01 0.01 0.02 0.02 0.04 0.11 0.20 0.27 0.32 0.36 0.41 0.45 0.44 0.38 0.30 0.24 0.23 0.26 0.29 0.31 0.31 0.32 0.36 0.37 0.41 0.42 0.42 0.40 0.37 0.37 0.37 0.43 0.47
0.01 0.01 0.00 0.00 0.00 0.01 0.02 0.00 0.01 0.01 0.01 0.01 0.01 0.01 0.00 0.00 0.00 0.02 0.06 0.11 0.17 0.26 0.35 0.41 0.42 0.39 0.39 0.41 0.42 0.38 0.34 0.30 0.29 0.29 0.30 0.30 0.29 0.30 0.34 0.38 0.39 0.40 0.41 0.41 0.41 0.42 0.45 0.48 0.50
0.00 0.00 0.00 0.00 0.00 0.00 0.01 0.00 0.01 0.01 0.01 0.00 0.00 0.00 0.00 0.01 0.02 0.06 0.13 0.20 0.24 0.32 0.41 0.45 0.50 0.52 0.54 0.58 0.63 0.69 0.67 0.60 0.51 0.38 0.34 0.36 0.38 0.38 0.37 0.39 0.41 0.41 0.44 0.51 0.56 0.56 0.60 0.61 0.59

GEFSSGP_prec_meanprecacc_042.txt.gz
Total_Precipitation_Accumulation
0.00 0.01 0.04 0.06 0.04 0.04 0.03 0.00 0.00 0.00 0.00 0.00 0.00 0.00 0.00 0.00 0.01 0.04 0.00 0.00 0.00 0.00 0.00 0.00 0.00 0.00 0.00 0.00 0.00 0.00 0.00 0.00 0.00 0.00 0.00 0.00 0.00 0.00 0.00 0.00 0.00 0.00 0.00 0.00 0.00 0.00 0.00 0.00 0.00
0.00 0.00 0.02 0.03 0.04 0.09 0.04 0.00 0.00 0.00 0.00 0.00 0.00 0.00 0.00 0.00 0.00 0.00 0.00 0.00 0.00 0.00 0.00 0.00 0.00 0.00 0.00 0.00 0.00 0.00 0.00 0.00 0.00 0.00 0.00 0.00 0.00 0.00 0.00 0.00 0.00 0.00 0.00 0.00 0.00 0.00 0.00 0.00 0.00
0.00 0.00 0.01 0.01 0.03 0.12 0.08 0.01 0.00 0.00 0.00 0.00 0.00 0.00 0.00 0.00 0.00 0.00 0.00 0.00 0.00 0.00 0.00 0.00 0.00 0.00 0.00 0.00 0.00 0.00 0.00 0.00 0.00 0.00 0.00 0.00 0.00 0.00 0.00 0.00 0.00 0.00 0.00 0.00 0.00 0.00 0.00 0.00 0.01
0.00 0.00 0.00 0.01 0.03 0.07 0.05 0.02 0.01 0.01 0.00 0.00 0.00 0.00 0.00 0.00 0.00 0.00 0.00 0.00 0.00 0.00 0.00 0.00 0.00 0.00 0.00 0.00 0.00 0.00 0.00 0.00 0.00 0.00 0.00 0.00 0.00 0.00 0.00 0.00 0.00 0.00 0.00 0.00 0.00 0.00 0.00 0.00 0.01
0.00 0.00 0.00 0.01 0.03 0.10 0.08 0.04 0.02 0.01 0.00 0.00 0.00 0.00 0.00 0.00 0.00 0.00 0.00 0.00 0.00 0.00 0.00 0.00 0.00 0.00 0.00 0.00 0.00 0.00 0.00 0.00 0.00 0.00 0.00 0.00 0.00 0.00 0.00 0.00 0.00 0.00 0.00 0.00 0.01 0.01 0.01 0.00 0.00
0.00 0.00 0.00 0.01 0.03 0.05 0.07 0.04 0.03 0.02 0.01 0.00 0.00 0.00 0.00 0.00 0.00 0.00 0.00 0.00 0.00 0.00 0.00 0.00 0.00 0.00 0.00 0.00 0.00 0.00 0.00 0.00 0.00 0.00 0.00 0.00 0.00 0.01 0.01 0.02 0.01 0.01 0.01 0.01 0.01 0.01 0.01 0.01 0.02
0.00 0.00 0.00 0.00 0.01 0.02 0.03 0.03 0.03 0.02 0.02 0.01 0.00 0.00 0.01 0.00 0.00 0.00 0.00 0.00 0.00 0.00 0.00 0.00 0.00 0.00 0.00 0.00 0.00 0.00 0.00 0.00 0.00 0.00 0.00 0.00 0.00 0.02 0.03 0.05 0.04 0.03 0.03 0.03 0.02 0.01 0.01 0.02 0.03
0.00 0.00 0.00 0.00 0.01 0.01 0.01 0.02 0.02 0.01 0.01 0.01 0.00 0.01 0.01 0.00 0.00 0.00 0.00 0.00 0.00 0.00 0.00 0.00 0.00 0.00 0.00 0.00 0.00 0.00 0.00 0.00 0.00 0.00 0.01 0.01 0.01 0.02 0.04 0.04 0.05 0.07 0.08 0.08 0.06 0.03 0.02 0.02 0.02
0.00 0.00 0.00 0.00 0.00 0.00 0.01 0.02 0.01 0.00 0.00 0.00 0.00 0.01 0.01 0.00 0.00 0.00 0.00 0.00 0.00 0.01 0.01 0.00 0.00 0.00 0.00 0.00 0.00 0.00 0.01 0.01 0.00 0.01 0.01 0.01 0.01 0.03 0.08 0.10 0.12 0.12 0.11 0.10 0.06 0.04 0.04 0.05 0.03
0.00 0.00 0.00 0.00 0.00 0.00 0.00 0.01 0.00 0.00 0.00 0.00 0.01 0.01 0.01 0.00 0.00 0.00 0.00 0.00 0.00 0.01 0.01 0.01 0.00 0.00 0.00 0.00 0.00 0.00 0.01 0.02 0.02 0.03 0.08 0.10 0.15 0.13 0.07 0.14 0.22 0.18 0.18 0.13 0.10 0.10 0.08 0.08 0.10
0.00 0.00 0.00 0.00 0.00 0.00 0.00 0.00 0.00 0.00 0.00 0.01 0.04 0.06 0.03 0.01 0.00 0.00 0.00 0.00 0.00 0.00 0.00 0.00 0.00 0.01 0.01 0.00 0.00 0.00 0.01 0.05 0.05 0.06 0.12 0.21 0.20 0.13 0.09 0.08 0.14 0.20 0.17 0.13 0.22 0.28 0.18 0.20 0.29
0.00 0.00 0.00 0.00 0.00 0.00 0.00 0.00 0.00 0.00 0.00 0.01 0.03 0.08 0.11 0.06 0.01 0.00 0.00 0.00 0.00 0.00 0.01 0.01 0.01 0.01 0.01 0.01 0.01 0.01 0.01 0.03 0.03 0.07 0.07 0.14 0.15 0.09 0.06 0.07 0.08 0.11 0.13 0.22 0.27 0.31 0.25 0.30 0.28
0.00 0.00 0.00 0.00 0.00 0.00 0.00 0.00 0.00 0.00 0.00 0.00 0.00 0.01 0.03 0.02 0.01 0.00 0.00 0.00 0.00 0.00 0.01 0.02 0.02 0.03 0.05 0.06 0.05 0.03 0.02 0.01 0.01 0.03 0.04 0.07 0.12 0.10 0.11 0.12 0.11 0.08 0.11 0.23 0.32 0.30 0.34 0.42 0.40
0.00 0.00 0.00 0.00 0.00 0.00 0.00 0.00 0.00 0.00 0.00 0.00 0.00 0.00 0.00 0.00 0.02 0.02 0.01 0.01 0.01 0.02 0.03 0.05 0.07 0.10 0.12 0.13 0.11 0.08 0.06 0.06 0.05 0.06 0.07 0.10 0.17 0.22 0.25 0.22 0.26 0.23 0.26 0.34 0.43 0.47 0.61 0.60 0.59
0.00 0.00 0.00 0.00 0.00 0.00 0.00 0.00 0.00 0.00 0.00 0.00 0.00 0.00 0.00 0.01 0.01 0.02 0.04 0.03 0.03 0.04 0.06 0.10 0.17 0.23 0.23 0.19 0.15 0.14 0.15 0.16 0.18 0.22 0.26 0.30 0.34 0.41 0.47 0.41 0.39 0.49 0.57 0.60 0.63 0.70 0.80 0.76 0.73
0.00 0.00 0.00 0.00 0.00 0.00 0.00 0.00 0.00 0.00 0.00 0.00 0.01 0.01 0.01 0.01 0.01 0.02 0.03 0.04 0.05 0.07 0.12 0.20 0.31 0.33 0.32 0.31 0.30 0.27 0.26 0.28 0.31 0.36 0.38 0.44 0.52 0.61 0.63 0.49 0.46 0.76 0.83 0.83 0.92 0.94 0.99 1.09 1.08
0.00 0.00 0.00 0.00 0.00 0.00 0.00 0.00 0.00 0.00 0.00 0.01 0.02 0.02 0.03 0.02 0.02 0.03 0.06 0.09 0.11 0.15 0.23 0.36 0.45 0.49 0.54 0.50 0.44 0.40 0.40 0.36 0.33 0.37 0.41 0.50 0.63 0.72 0.81 0.62 0.63 0.94 1.05 1.05 1.05 1.20 1.35 1.32 1.33
0.00 0.00 0.00 0.00 0.00 0.00 0.00 0.00 0.00 0.02 0.04 0.04 0.03 0.05 0.05 0.04 0.05 0.08 0.13 0.16 0.20 0.27 0.33 0.36 0.48 0.62 0.76 0.78 0.66 0.53 0.43 0.35 0.34 0.37 0.40 0.46 0.57 0.78 0.99 0.78 0.83 1.11 1.14 1.10 1.23 1.34 1.46 1.36 1.43
0.00 0.00 0.00 0.00 0.00 0.00 0.00 0.00 0.00 0.00 0.03 0.05 0.05 0.06 0.09 0.14 0.12 0.13 0.20 0.22 0.20 0.22 0.28 0.41 0.58 0.70 0.76 0.83 0.79 0.70 0.53 0.49 0.42 0.41 0.47 0.56 0.66 0.84 1.11 0.96 1.03 1.13 1.08 1.04 1.21 1.32 1.26 1.16 1.53
0.00 0.00 0.00 0.00 0.00 0.00 0.00 0.00 0.01 0.02 0.05 0.08 0.09 0.13 0.17 0.19 0.22 0.29 0.37 0.33 0.26 0.27 0.36 0.47 0.53 0.59 0.62 0.69 0.77 0.83 0.89 0.79 0.69 0.70 0.77 0.80 0.88 0.95 1.07 1.11 1.06 1.09 1.05 0.92 0.95 1.12 1.05 0.84 1.23
0.00 0.00 0.00 0.00 0.00 0.00 0.00 0.00 0.01 0.04 0.08 0.16 0.23 0.28 0.36 0.40 0.48 0.52 0.52 0.49 0.43 0.37 0.43 0.50 0.50 0.52 0.60 0.74 0.88 0.98 1.09 1.04 1.05 1.12 1.20 1.12 1.14 1.12 1.17 1.09 1.05 1.02 1.02 0.86 0.80 0.95 1.00 0.83 0.92
0.00 0.00 0.00 0.00 0.00 0.00 0.00 0.00 0.00 0.02 0.10 0.23 0.34 0.39 0.47 0.46 0.44 0.44 0.48 0.51 0.46 0.46 0.50 0.60 0.62 0.62 0.76 0.98 1.10 1.15 1.29 1.42 1.57 1.78 1.73 1.58 1.44 1.30 1.20 1.04 0.91 0.81 0.81 0.74 0.72 0.83 0.91 0.92 0.76
0.00 0.00 0.00 0.00 0.00 0.00 0.00 0.00 0.01 0.02 0.10 0.27 0.37 0.42 0.42 0.39 0.34 0.36 0.47 0.56 0.60 0.57 0.59 0.74 0.80 0.92 1.12 1.30 1.42 1.51 1.58 1.67 1.67 1.68 1.59 1.46 1.36 1.22 1.09 0.96 0.86 0.79 0.73 0.67 0.65 0.68 0.71 0.74 0.68
0.00 0.00 0.00 0.00 0.01 0.03 0.04 0.03 0.02 0.03 0.10 0.17 0.16 0.21 0.28 0.28 0.27 0.32 0.44 0.71 0.94 0.94 0.88 0.92 1.02 1.16 1.30 1.37 1.45 1.48 1.44 1.40 1.31 1.20 1.09 0.99 0.93 0.84 0.76 0.67 0.59 0.58 0.57 0.58 0.57 0.57 0.58 0.59 0.61
0.00 0.00 0.00 0.02 0.08 0.13 0.11 0.06 0.05 0.05 0.05 0.07 0.09 0.10 0.13 0.16 0.26 0.28 0.30 0.38 0.46 0.52 0.55 0.56 0.59 0.74 0.87 0.93 0.96 0.98 0.95 0.88 0.80 0.72 0.65 0.60 0.52 0.44 0.39 0.36 0.36 0.36 0.36 0.37 0.40 0.40 0.42 0.46 0.50
0.00 0.00 0.00 0.01 0.01 0.02 0.03 0.04 0.07 0.08 0.04 0.03 0.03 0.03 0.05 0.08 0.11 0.13 0.13 0.15 0.28 0.42 0.53 0.56 0.51 0.49 0.48 0.52 0.55 0.51 0.52 0.50 0.47 0.50 0.45 0.42 0.40 0.34 0.30 0.29 0.31 0.32 0.32 0.31 0.34 0.35 0.34 0.37 0.41
0.00 0.00 0.00 0.00 0.00 0.00 0.01 0.04 0.08 0.10 0.12 0.09 0.04 0.02 0.03 0.03 0.03 0.04 0.05 0.06 0.15 0.29 0.37 0.39 0.41 0.43 0.46 0.48 0.45 0.37 0.33 0.34 0.35 0.37 0.38 0.41 0.44 0.37 0.36 0.38 0.41 0.42 0.44 0.43 0.40 0.39 0.37 0.42 0.47
0.01 0.00 0.00 0.00 0.01 0.00 0.00 0.06 0.14 0.17 0.22 0.15 0.04 0.02 0.01 0.01 0.01 0.02 0.02 0.03 0.06 0.13 0.23 0.31 0.36 0.40 0.45 0.48 0.46 0.39 0.32 0.27 0.27 0.31 0.37 0.40 0.39 0.40 0.42 0.44 0.47 0.48 0.46 0.43 0.39 0.39 0.40 0.47 0.52
0.01 0.01 0.00 0.00 0.00 0.01 0.03 0.08 0.09 0.12 0.10 0.08 0.04 0.02 0.01 0.00 0.00 0.02 0.06 0.11 0.18 0.27 0.37 0.43 0.44 0.41 0.42 0.44 0.44 0.40 0.35 0.32 0.31 0.32 0.35 0.37 0.37 0.38 0.42 0.45 0.46 0.46 0.46 0.44 0.45 0.45 0.48 0.51 0.54
0.01 0.00 0.00 0.01 0.00 0.00 0.03 0.10 0.05 0.05 0.05 0.03 0.02 0.01 0.01 0.01 0.02 0.06 0.13 0.20 0.25 0.33 0.42 0.46 0.51 0.53 0.56 0.60 0.65 0.71 0.68 0.61 0.52 0.40 0.36 0.40 0.44 0.44 0.45 0.47 0.48 0.47 0.49 0.55 0.59 0.58 0.62 0.64 0.63

GEFSSGP_prec_meanprecacc_048.txt.gz
Total_Precipitation_Accumulation
0.00 0.02 0.08 0.11 0.06 0.06 0.05 0.01 0.00 0.00 0.00 0.00 0.00 0.00 0.00 0.00 0.01 0.04 0.00 0.00 0.00 0.00 0.00 0.00 0.00 0.00 0.00 0.00 0.00 0.00 0.00 0.00 0.00 0.00 0.00 0.00 0.00 0.00 0.00 0.00 0.00 0.00 0.00 0.00 0.00 0.00 0.00 0.00 0.00
0.00 0.01 0.05 0.07 0.08 0.16 0.07 0.01 0.00 0.00 0.00 0.00 0.00 0.00 0.00 0.00 0.00 0.00 0.00 0.00 0.00 0.00 0.00 0.00 0.00 0.00 0.00 0.00 0.00 0.00 0.00 0.00 0.00 0.00 0.00 0.00 0.00 0.00 0.00 0.00 0.00 0.00 0.00 0.00 0.00 0.00 0.00 0.00 0.00
0.00 0.00 0.03 0.04 0.08 0.19 0.13 0.02 0.01 0.00 0.00 0.00 0.00 0.00 0.00 0.00 0.00 0.00 0.00 0.00 0.00 0.00 0.00 0.00 0.00 0.00 0.00 0.00 0.00 0.00 0.00 0.00 0.00 0.00 0.00 0.00 0.00 0.00 0.00 0.00 0.00 0.00 0.00 0.00 0.00 0.00 0.00 0.00 0.01
0.00 0.00 0.01 0.02 0.05 0.13 0.11 0.06 0.03 0.01 0.01 0.00 0.00 0.00 0.00 0.00 0.00 0.00 0.00 0.00 0.00 0.00 0.00 0.00 0.00 0.00 0.00 0.00 0.00 0.00 0.00 0.00 0.00 0.00 0.00 0.00 0.00 0.00 0.00 0.00 0.00 0.00 0.00 0.00 0.00 0.00 0.00 0.00 0.01
0.00 0.00 0.00 0.01 0.04 0.12 0.13 0.10 0.06 0.02 0.01 0.00 0.00 0.00 0.00 0.00 0.00 0.00 0.00 0.00 0.00 0.00 0.00 0.00 0.00 0.00 0.00 0.00 0.00 0.00 0.00 0.00 0.00 0.00 0.00 0.00 0.00 0.00 0.00 0.00 0.00 0.00 0.00 0.00 0.01 0.01 0.01 0.00 0.00
0.00 0.00 0.00 0.01 0.03 0.07 0.10 0.08 0.06 0.03 0.01 0.01 0.00 0.00 0.00 0.00 0.00 0.00 0.00 0.00 0.00 0.00 0.00 0.00 0.00 0.00 0.00 0.00 0.00 0.00 0.00 0.00 0.00 0.00 0.00 0.00 0.00 0.01 0.01 0.02 0.01 0.01 0.01 0.01 0.01 0.01 0.01 0.01 0.02
0.00 0.00 0.00 0.00 0.01 0.03 0.06 0.06 0.05 0.03 0.03 0.02 0.01 0.01 0.01 0.00 0.00 0.00 0.00 0.00 0.00 0.00 0.00 0.00 0.00 0.00 0.00 0.00 0.00 0.00 0.00 0.00 0.00 0.00 0.00 0.00 0.00 0.02 0.03 0.05 0.04 0.03 0.03 0.03 0.02 0.01 0.01 0.02 0.03
0.00 0.00 0.00 0.00 0.01 0.01 0.02 0.03 0.03 0.03 0.02 0.02 0.01 0.02 0.02 0.00 0.00 0.00 0.00 0.00 0.00 0.00 0.00 0.00 0.00 0.00 0.00 0.00 0.00 0.00 0.00 0.00 0.00 0.00 0.01 0.01 0.01 0.02 0.04 0.05 0.07 0.09 0.09 0.09 0.06 0.04 0.02 0.03 0.03
0.00 0.00 0.00 0.00 0.00 0.00 0.01 0.02 0.02 0.01 0.01 0.01 0.01 0.02 0.02 0.00 0.00 0.00 0.00 0.00 0.00 0.01 0.01 0.00 0.00 0.00 0.00 0.00 0.00 0.00 0.01 0.01 0.00 0.01 0.01 0.01 0.01 0.03 0.09 0.12 0.16 0.17 0.16 0.13 0.09 0.05 0.05 0.06 0.04
0.00 0.00 0.00 0.00 0.00 0.00 0.00 0.01 0.01 0.01 0.01 0.01 0.02 0.04 0.03 0.01 0.00 0.00 0.00 0.00 0.00 0.01 0.01 0.01 0.00 0.00 0.00 0.00 0.00 0.00 0.01 0.02 0.02 0.03 0.08 0.10 0.15 0.13 0.08 0.16 0.28 0.27 0.28 0.23 0.20 0.19 0.14 0.10 0.11
0.00 0.00 0.00 0.00 0.00 0.00 0.00 0.00 0.00 0.00 0.01 0.02 0.07 0.10 0.07 0.02 0.00 0.00 0.00 0.00 0.00 0.00 0.01 0.01 0.00 0.01 0.01 0.00 0.00 0.00 0.01 0.06 0.05 0.06 0.12 0.22 0.21 0.14 0.11 0.11 0.21 0.30 0.30 0.23 0.36 0.43 0.29 0.28 0.36
0.00 0.00 0.00 0.00 0.00 0.00 0.00 0.00 0.00 0.00 0.00 0.01 0.04 0.09 0.12 0.07 0.01 0.00 0.00 0.00 0.00 0.01 0.01 0.01 0.01 0.01 0.02 0.01 0.01 0.01 0.01 0.03 0.04 0.08 0.10 0.17 0.18 0.12 0.10 0.13 0.14 0.19 0.23 0.35 0.43 0.49 0.46 0.47 0.43
0.00 0.00 0.00 0.00 0.00 0.00 0.00 0.00 0.00 0.00 0.00 0.00 0.01 0.01 0.03 0.04 0.03 0.03 0.02 0.01 0.01 0.01 0.02 0.03 0.03 0.04 0.06 0.06 0.06 0.03 0.03 0.04 0.04 0.07 0.08 0.12 0.17 0.16 0.17 0.19 0.18 0.16 0.23 0.40 0.50 0.48 0.54 0.64 0.61
0.00 0.00 0.00 0.00 0.00 0.00 0.00 0.00 0.00 0.00 0.00 0.00 0.00 0.01 0.01 0.01 0.03 0.06 0.07 0.08 0.07 0.06 0.06 0.07 0.10 0.15 0.16 0.15 0.13 0.11 0.11 0.12 0.11 0.12 0.14 0.16 0.22 0.28 0.31 0.27 0.31 0.27 0.33 0.43 0.54 0.58 0.74 0.75 0.76
0.00 0.00 0.00 0.00 0.00 0.00 0.00 0.00 0.00 0.00 0.00 0.00 0.00 0.01 0.01 0.01 0.02 0.04 0.07 0.10 0.14 0.16 0.16 0.22 0.30 0.35 0.33 0.27 0.21 0.21 0.24 0.26 0.27 0.31 0.34 0.37 0.40 0.46 0.50 0.44 0.41 0.51 0.61 0.65 0.69 0.75 0.88 0.84 0.81
0.00 0.00 0.00 0.00 0.00 0.00 0.00 0.00 0.00 0.00 0.00 0.00 0.02 0.02 0.02 0.02 0.03 0.06 0.10 0.16 0.23 0.30 0.37 0.52 0.70 0.67 0.56 0.49 0.42 0.38 0.40 0.44 0.47 0.50 0.54 0.55 0.59 0.64 0.64 0.51 0.47 0.78 0.86 0.86 0.95 0.97 1.03 1.13 1.13
0.00 0.00 0.00 0.00 0.00 0.00 0.00 0.00 0.00 0.00 0.00 0.02 0.04 0.04 0.05 0.04 0.07 0.14 0.28 0.43 0.51 0.63 0.84 1.12 1.20 1.11 1.05 0.89 0.71 0.60 0.59 0.55 0.54 0.61 0.61 0.63 0.69 0.73 0.81 0.63 0.64 0.96 1.07 1.06 1.07 1.21 1.37 1.35 1.36
0.00 0.00 0.00 0.00 0.00 0.00 0.00 0.00 0.00 0.02 0.05 0.05 0.05 0.07 0.09 0.11 0.20 0.32 0.49 0.62 0.75 1.03 1.34 1.49 1.55 1.52 1.49 1.43 1.15 0.87 0.70 0.58 0.59 0.58 0.56 0.54 0.58 0.78 0.99 0.78 0.84 1.11 1.14 1.10 1.23 1.35 1.47 1.38 1.45
0.00 0.00 0.00 0.00 0.00 0.00 0.00 0.00 0.00 0.01 0.03 0.07 0.10 0.11 0.16 0.31 0.44 0.51 0.63 0.75 0.93 1.22 1.50 1.79 1.85 1.80 1.69 1.64 1.41 1.14 0.80 0.69 0.61 0.52 0.51 0.59 0.67 0.85 1.12 0.97 1.04 1.14 1.08 1.04 1.22 1.33 1.27 1.16 1.54
0.00 0.00 0.00 0.00 0.00 0.00 0.00 0.00 0.01 0.02 0.05 0.09 0.16 0.25 0.36 0.51 0.64 0.76 0.94 1.02 1.01 1.11 1.36 1.62 1.58 1.39 1.26 1.21 1.17 1.11 1.10 0.94 0.79 0.75 0.81 0.83 0.90 0.96 1.08 1.11 1.06 1.09 1.05 0.92 0.95 1.12 1.05 0.84 1.23
0.00 0.00 0.00 0.00 0.00 0.00 0.00 0.00 0.02 0.05 0.10 0.19 0.31 0.51 0.65 0.72 0.84 0.93 0.99 1.00 0.95 0.94 1.05 1.14 1.04 0.91 0.91 1.01 1.09 1.16 1.26 1.17 1.16 1.24 1.28 1.16 1.17 1.15 1.19 1.10 1.05 1.02 1.02 0.86 0.80 0.95 1.00 0.83 0.92
0.00 0.00 0.00 0.00 0.00 0.00 0.00 0.00 0.02 0.04 0.13 0.28 0.44 0.57 0.63 0.67 0.71 0.73 0.72 0.80 0.78 0.77 0.84 0.96 0.97 0.95 1.02 1.23 1.31 1.33 1.44 1.54 1.67 1.88 1.83 1.65 1.49 1.36 1.25 1.07 0.93 0.83 0.82 0.74 0.72 0.83 0.91 0.92 0.76
0.00 0.00 0.00 0.00 0.00 0.00 0.01 0.01 0.04 0.07 0.16 0.35 0.48 0.58 0.61 0.62 0.60 0.56 0.62 0.73 0.77 0.70 0.74 0.93 1.04 1.16 1.36 1.53 1.61 1.68 1.74 1.80 1.79 1.78 1.67 1.55 1.46 1.32 1.18 1.04 0.91 0.82 0.74 0.67 0.65 0.68 0.72 0.74 0.68
0.00 0.00 0.00 0.00 0.01 0.05 0.07 0.06 0.08 0.15 0.29 0.37 0.35 0.40 0.47 0.48 0.44 0.44 0.52 0.78 1.02 1.01 0.95 1.01 1.16 1.32 1.48 1.57 1.64 1.65 1.59 1.54 1.44 1.31 1.19 1.09 1.03 0.95 0.88 0.79 0.69 0.63 0.61 0.60 0.58 0.57 0.58 0.59 0.62
0.00 0.00 0.01 0.02 0.09 0.15 0.14 0.10 0.17 0.32 0.44 0.43 0.49 0.51 0.38 0.32 0.37 0.35 0.34 0.41 0.49 0.56 0.61 0.63 0.67 0.84 0.98 1.06 1.10 1.10 1.08 1.00 0.92 0.83 0.75 0.67 0.60 0.54 0.49 0.46 0.46 0.44 0.43 0.43 0.43 0.42 0.43 0.47 0.51
0.01 0.00 0.01 0.02 0.02 0.04 0.07 0.11 0.25 0.35 0.32 0.36 0.42 0.36 0.22 0.18 0.18 0.17 0.15 0.17 0.30 0.44 0.55 0.59 0.55 0.53 0.53 0.57 0.61 0.57 0.58 0.56 0.54 0.57 0.51 0.47 0.46 0.42 0.39 0.40 0.41 0.39 0.39 0.38 0.39 0.38 0.36 0.37 0.41
0.02 0.01 0.01 0.01 0.00 0.01 0.06 0.16 0.23 0.28 0.32 0.34 0.24 0.15 0.12 0.09 0.07 0.06 0.06 0.07 0.16 0.30 0.39 0.40 0.43 0.46 0.48 0.50 0.47 0.40 0.36 0.36 0.37 0.40 0.41 0.43 0.46 0.40 0.40 0.44 0.47 0.49 0.51 0.49 0.44 0.42 0.40 0.44 0.48
0.03 0.02 0.01 0.01 0.01 0.02 0.03 0.17 0.29 0.32 0.35 0.28 0.19 0.15 0.09 0.05 0.03 0.03 0.03 0.04 0.07 0.14 0.23 0.31 0.37 0.40 0.46 0.49 0.47 0.41 0.34 0.29 0.29 0.32 0.38 0.41 0.41 0.41 0.44 0.46 0.51 0.52 0.51 0.47 0.44 0.43 0.43 0.49 0.53
0.03 0.03 0.02 0.01 0.02 0.04 0.07 0.16 0.20 0.25 0.24 0.21 0.15 0.08 0.04 0.02 0.01 0.02 0.06 0.12 0.18 0.27 0.37 0.43 0.44 0.41 0.42 0.45 0.44 0.41 0.36 0.33 0.32 0.33 0.36 0.37 0.37 0.39 0.42 0.45 0.47 0.48 0.48 0.47 0.48 0.48 0.50 0.54 0.56
0.03 0.03 0.02 0.02 0.02 0.02 0.07 0.17 0.10 0.10 0.10 0.07 0.05 0.03 0.01 0.01 0.02 0.06 0.13 0.20 0.25 0.33 0.42 0.46 0.51 0.53 0.56 0.60 0.65 0.71 0.68 0.62 0.53 0.41 0.37 0.40 0.44 0.44 0.45 0.48 0.48 0.47 0.50 0.56 0.61 0.60 0.65 0.67 0.66